GEFSSE_con_probscp_000.txt.gz
Probability
0 0 0 0 0 0 2 7 18 29 32 32 29 17 7 4 3 1 1 1 1 0 1 2 2 3 5 5 2 0 0 0 0 0 0 0 0 0 0 0 0 0 0
0 0 0 0 0 0 1 5 16 29 35 38 36 22 9 4 3 2 1 0 0 0 0 1 1 4 7 6 3 1 0 0 0 0 0 0 0 0 0 0 0 0 0
0 0 0 1 1 1 1 3 9 17 25 33 34 23 11 6 4 2 1 0 0 0 0 1 2 4 7 6 3 1 0 0 0 0 0 0 1 2 1 0 0 0 0
0 0 0 2 2 2 2 2 3 5 9 15 18 13 8 6 3 1 0 0 0 1 3 4 4 5 6 5 3 1 0 0 0 0 1 2 11 19 15 6 2 1 0
0 0 1 2 2 1 1 1 1 2 3 4 5 4 4 3 1 0 0 0 1 3 6 7 6 6 6 4 2 0 0 0 0 0 2 7 27 47 40 25 20 12 5
0 0 0 1 1 0 0 0 0 1 1 1 1 1 1 1 0 0 0 0 1 4 6 7 6 5 4 2 1 0 0 0 0 1 3 16 46 65 51 35 34 26 14
0 0 0 0 0 0 0 0 0 0 0 0 0 0 0 0 0 0 0 0 1 3 5 5 4 3 1 0 0 0 0 0 0 1 8 31 64 68 42 23 21 20 16
0 0 0 0 0 1 1 0 0 1 0 0 0 0 0 0 0 0 1 1 2 3 4 2 1 1 0 0 0 0 0 0 0 1 10 35 57 51 26 8 3 5 7
0 0 0 0 0 1 1 0 0 0 0 0 0 0 0 0 0 0 1 3 5 6 4 1 0 0 0 0 0 0 0 0 0 0 6 18 25 20 10 3 0 0 1
0 0 0 0 0 1 1 0 0 1 1 0 0 0 0 0 0 1 2 4 6 8 5 1 0 0 0 0 0 0 0 0 0 0 1 3 4 2 2 1 0 0 0
0 0 0 0 0 0 0 0 0 1 1 0 0 0 0 0 0 1 3 4 5 6 4 1 0 0 0 0 0 0 0 0 0 0 1 3 5 7 7 5 4 4 3
0 0 0 0 0 0 0 0 0 1 1 0 0 0 0 0 0 0 1 2 3 3 2 0 0 0 0 0 0 0 0 0 0 0 1 2 5 10 13 11 13 17 18
0 0 0 0 0 0 0 0 0 0 0 0 0 0 0 0 0 0 0 0 1 1 0 0 0 0 0 0 0 0 0 0 0 0 2 4 6 8 9 12 19 32 43
0 0 0 0 0 0 0 0 0 0 0 0 0 0 0 0 0 0 0 0 0 0 0 0 0 0 0 0 0 0 0 0 0 0 4 11 10 5 4 7 15 31 45
0 0 0 0 0 0 0 0 0 0 0 0 0 0 0 0 0 0 0 0 0 0 0 0 0 0 0 0 0 0 0 1 3 5 8 12 10 4 3 5 8 17 26
0 0 0 0 0 0 0 0 0 0 0 0 0 0 0 1 4 4 1 0 0 0 0 0 0 0 0 0 0 0 0 2 8 11 8 5 4 2 2 3 3 7 13
0 0 0 0 0 0 0 0 1 1 0 0 0 1 1 4 9 9 3 0 0 0 0 0 0 0 0 0 0 0 0 2 7 9 5 1 0 0 1 1 1 5 9
0 0 0 0 0 1 5 11 12 8 2 1 1 1 2 4 7 7 3 0 0 0 0 0 0 0 0 0 0 0 0 1 2 2 1 0 0 0 1 1 1 3 5
0 0 0 1 5 12 22 33 33 17 5 2 1 1 1 1 2 2 1 0 0 0 0 0 0 0 0 0 0 0 0 0 0 0 0 0 0 1 2 2 2 3 2
2 5 8 10 16 28 39 44 37 18 4 1 1 0 0 0 0 0 0 0 0 0 0 0 0 0 0 0 0 0 0 0 0 0 0 0 0 1 2 3 3 3 1
20 27 35 35 32 39 46 40 24 9 1 0 0 0 0 0 0 0 0 0 0 0 0 0 0 0 0 0 0 0 0 0 0 0 0 0 0 0 1 1 1 1 1
57 64 71 68 59 53 47 31 13 2 0 0 0 0 0 0 0 0 0 0 0 0 0 0 0 0 0 0 0 0 0 0 0 0 0 0 0 0 0 0 0 0 0
85 89 91 86 75 59 38 19 6 1 0 0 0 0 0 0 0 0 0 0 0 0 0 0 0 0 0 0 0 0 0 0 0 0 0 0 0 0 0 0 0 0 0
86 90 91 81 63 40 19 6 1 0 0 0 0 0 0 0 0 0 0 0 0 0 0 0 0 0 0 0 0 0 0 0 0 0 0 0 0 0 0 0 0 0 0
73 77 75 60 37 17 6 1 0 0 0 0 0 0 0 0 0 0 0 0 0 0 0 0 0 0 0 0 0 0 0 0 0 0 0 0 0 0 0 0 0 0 0
65 66 59 41 20 7 2 0 0 0 0 0 0 0 0 0 0 0 0 0 0 0 0 0 0 0 0 0 0 0 0 0 0 0 0 0 0 0 0 0 0 0 0

GEFSSE_con_probscp_006.txt.gz
Probability
3 6 15 20 16 16 15 7 1 0 0 0 0 0 0 0 0 0 0 0 0 0 0 0 0 0 0 0 0 0 0 0 0 0 0 0 0 0 0 0 0 0 0
3 6 13 14 11 12 12 5 1 0 0 0 0 0 0 0 0 0 0 0 0 0 0 0 0 0 0 0 0 0 0 0 0 0 0 0 0 0 0 0 0 0 0
2 3 7 8 5 5 5 2 0 0 0 0 0 0 0 0 0 0 0 0 0 0 0 0 0 0 0 0 0 0 0 0 0 0 0 0 1 0 0 0 0 0 0
1 1 2 4 3 1 0 0 0 0 0 0 1 0 0 0 0 0 0 0 0 0 0 0 0 0 0 0 0 0 0 0 0 0 0 3 7 9 8 8 6 2 0
2 3 2 3 4 1 0 0 0 0 0 0 0 0 0 0 0 0 0 0 0 0 0 0 0 0 0 0 0 0 0 0 0 0 1 10 24 32 35 33 24 11 4
4 5 4 3 3 1 0 0 0 0 0 0 0 0 0 0 0 0 0 0 0 0 0 0 0 0 0 0 0 0 0 0 0 0 7 26 47 58 58 50 37 22 14
4 4 3 1 1 0 0 0 0 0 0 0 0 0 0 0 0 0 0 0 0 0 0 0 0 0 0 0 0 0 0 0 0 3 19 46 62 62 50 34 25 21 19
1 2 1 0 0 0 0 0 0 0 0 0 0 0 0 0 0 0 0 0 0 0 0 0 0 0 0 0 0 0 0 0 0 6 24 42 48 39 22 10 6 8 11
1 1 1 0 0 0 0 0 0 0 0 0 0 0 0 0 0 0 0 0 0 0 0 0 0 0 0 0 0 0 0 0 0 3 11 17 18 13 5 1 0 1 2
1 3 4 3 1 0 0 0 0 0 0 0 0 0 0 0 0 0 0 0 0 0 0 0 0 0 0 0 0 0 0 0 0 0 0 1 2 1 0 0 0 0 0
4 8 12 9 3 0 0 0 0 0 0 0 0 0 0 0 0 0 0 0 0 0 0 0 0 0 0 0 0 0 0 0 0 0 1 2 2 0 0 0 0 0 0
14 14 17 16 7 2 0 0 0 0 0 0 0 0 0 0 0 0 0 0 0 0 0 0 0 0 0 0 0 0 0 0 0 0 3 7 5 1 0 0 0 0 1
31 19 17 21 14 5 1 0 0 1 0 0 1 1 0 0 0 0 1 1 1 0 0 0 0 0 0 0 0 0 0 0 0 0 3 8 5 1 0 0 2 7 11
38 21 18 31 30 21 11 5 5 9 8 7 6 2 0 0 0 1 4 4 2 1 1 1 0 0 0 0 0 0 0 0 0 0 4 10 10 4 0 1 7 19 30
40 22 19 42 57 53 38 24 23 28 23 17 8 2 0 1 7 15 19 15 8 7 12 14 9 5 4 2 0 0 0 0 4 7 14 24 27 14 6 5 12 27 40
57 41 34 54 79 79 57 43 40 34 32 26 24 24 20 16 21 36 46 43 34 29 35 37 26 14 9 4 1 1 1 2 11 23 32 41 41 28 20 19 22 30 38
83 74 61 65 84 82 59 48 40 35 43 53 63 68 61 47 42 54 69 74 68 56 52 48 34 19 11 5 3 3 3 4 13 26 35 38 34 30 32 35 37 38 39
98 93 79 74 86 82 68 62 56 59 73 85 92 92 83 66 56 65 75 78 73 58 46 37 24 14 9 5 4 4 3 3 6 12 17 18 17 19 26 36 46 47 42
100 96 87 86 91 91 88 87 87 89 94 94 90 84 73 54 47 56 58 52 46 36 26 16 9 5 4 3 2 2 2 2 2 2 3 4 6 9 11 21 39 44 35
100 99 97 97 98 98 98 99 99 96 90 81 73 66 52 32 24 29 29 22 16 13 9 3 1 0 0 0 0 0 1 1 1 0 0 1 3 3 2 6 17 22 19
100 100 100 100 100 100 100 100 99 93 79 62 49 39 26 14 8 10 8 4 2 2 2 1 0 0 0 0 0 0 0 0 0 0 0 0 0 0 0 0 2 4 4
100 100 100 100 100 100 100 100 97 85 63 38 23 14 8 3 2 1 1 0 0 0 0 0 0 0 0 0 0 0 0 0 0 0 0 0 0 0 0 0 0 0 0
100 100 100 100 100 100 100 99 91 73 47 23 10 5 2 0 0 0 0 0 0 0 0 0 0 0 0 0 0 0 0 0 0 0 0 0 0 0 0 0 0 0 0
100 100 100 100 100 99 99 97 89 70 45 23 9 3 1 0 0 0 0 0 0 0 0 0 0 0 0 0 0 0 0 0 0 0 0 0 0 0 0 0 0 0 0
100 100 100 100 99 98 96 94 87 69 43 20 6 1 0 0 0 0 0 0 0 0 0 0 0 0 0 0 0 0 0 0 0 0 0 0 0 0 0 0 0 0 0
100 100 100 100 99 97 93 91 82 61 34 12 2 0 0 0 0 0 0 0 0 0 0 0 0 0 0 0 0 0 0 0 0 0 0 0 0 0 0 0 0 0 0

GEFSSE_con_probscp_012.txt.gz
Probability
0 0 3 8 14 17 19 18 13 10 11 16 22 22 23 30 39 40 31 19 10 4 2 1 0 0 0 0 0 0 0 0 0 0 0 0 0 0 0 0 0 0 0
0 1 6 16 25 29 29 26 19 14 15 20 22 21 19 20 24 23 17 9 5 2 1 0 0 0 0 0 0 0 0 0 0 0 0 0 0 0 0 0 0 0 0
0 1 7 20 31 35 32 26 21 17 16 16 15 12 9 7 7 6 3 1 1 0 0 0 0 0 0 0 0 0 0 0 0 0 0 0 0 0 0 0 0 0 0
0 0 5 13 21 24 21 17 15 12 10 8 5 4 2 1 1 1 0 0 0 0 0 0 0 0 0 0 0 0 0 0 0 0 0 0 0 0 0 0 0 0 0
0 0 2 5 9 10 9 7 7 6 3 2 1 1 0 0 0 0 0 0 0 0 0 0 0 0 0 0 0 0 0 0 0 0 0 0 0 1 1 1 0 0 0
0 1 2 3 2 2 2 2 2 1 0 0 0 0 0 0 0 0 0 0 0 0 0 0 0 0 0 0 0 0 0 0 0 0 0 1 3 6 6 6 4 1 0
0 1 2 2 1 0 0 0 0 0 0 0 0 0 0 0 0 0 0 0 0 0 0 0 0 0 0 0 0 0 0 0 0 0 0 1 5 10 11 11 9 4 1
0 0 1 1 1 0 0 0 0 0 0 0 0 0 0 0 0 0 0 0 0 0 0 0 0 0 0 0 0 0 0 0 0 0 0 1 4 8 9 9 8 5 3
0 0 0 0 0 0 0 0 0 0 0 0 0 0 0 0 0 0 0 0 0 0 0 0 0 0 0 0 0 0 0 0 0 0 0 0 2 4 3 2 3 2 1
0 0 0 0 0 0 0 0 0 0 0 0 0 0 0 0 0 0 0 0 0 0 0 0 0 0 0 0 0 0 0 0 0 0 0 0 1 2 1 0 0 0 0
0 0 0 0 0 0 0 0 0 0 0 0 0 0 0 0 0 0 0 0 0 0 0 0 0 0 0 0 0 0 0 0 0 0 0 0 0 0 0 0 0 0 0
1 1 1 0 0 0 0 0 0 0 0 0 0 0 0 0 0 0 0 0 0 0 0 0 0 0 0 0 0 0 0 0 0 0 0 0 0 0 0 0 0 0 0
8 11 10 5 1 0 0 0 0 0 0 0 0 0 0 0 0 0 0 0 0 0 0 0 0 0 0 0 0 0 0 0 0 0 0 1 4 6 6 5 3 3 5
28 33 31 18 6 1 0 0 0 0 0 0 0 0 0 0 0 0 0 0 0 0 0 0 0 0 0 0 0 0 0 0 0 0 1 6 16 25 27 22 15 13 17
54 59 56 35 13 3 0 0 0 0 0 0 0 0 0 0 0 0 0 0 0 0 0 0 0 0 0 0 0 0 0 0 0 0 2 13 33 50 54 46 34 27 27
70 74 74 55 24 6 2 2 1 0 0 0 0 0 0 0 0 0 0 0 0 0 0 0 0 0 0 0 0 0 0 0 0 0 1 11 34 56 66 64 53 43 37
76 79 84 74 42 16 8 6 4 2 1 0 0 0 0 0 0 0 0 0 0 0 0 0 0 0 0 0 0 0 0 0 0 0 0 4 16 34 50 58 57 51 45
77 81 89 87 65 35 20 18 18 15 11 7 3 1 0 0 0 0 0 0 0 0 0 0 0 0 0 0 0 0 0 0 0 0 0 0 2 9 19 31 38 37 35
76 83 92 95 84 62 47 44 42 34 23 12 4 1 1 1 1 0 0 0 0 0 0 0 0 0 0 0 0 0 0 0 0 0 0 0 0 0 2 7 13 15 14
81 87 94 97 95 88 79 71 59 39 20 8 2 0 1 1 1 0 0 0 0 0 0 0 0 0 0 0 0 0 0 0 0 0 0 0 0 0 0 0 2 2 2
90 92 96 98 100 98 93 79 56 28 8 1 0 0 0 0 0 0 0 0 0 0 0 0 0 0 0 0 0 0 0 0 0 0 0 0 0 0 0 0 0 0 0
97 97 98 99 100 98 89 69 39 14 3 0 0 0 0 0 0 0 0 0 0 0 0 0 0 0 0 0 0 0 0 0 0 0 0 0 0 0 0 0 0 0 0
99 99 99 99 100 94 77 48 20 5 1 0 0 0 0 0 0 0 0 0 0 0 0 0 0 0 0 0 0 0 0 0 0 0 0 0 0 0 0 0 0 0 0
100 100 100 100 97 83 55 24 6 1 0 0 0 0 0 0 0 0 0 0 0 0 0 0 0 0 0 0 0 0 0 0 0 0 0 0 0 0 0 0 0 0 0
100 100 99 95 83 59 28 8 1 0 0 0 0 0 0 0 0 0 0 0 0 0 0 0 0 0 0 0 0 0 0 0 0 0 0 0 0 0 0 0 0 0 0
100 99 97 89 67 38 14 2 0 0 0 0 0 0 0 0 0 0 0 0 0 0 0 0 0 0 0 0 0 0 0 0 0 0 0 0 0 0 0 0 0 0 0

GEFSSE_con_probscp_018.txt.gz
Probability
0 0 0 0 1 2 3 3 4 7 16 29 42 50 52 49 37 20 6 1 0 0 0 0 0 0 0 0 0 0 0 0 0 0 0 0 0 0 0 0 0 0 0
0 0 0 0 0 1 2 3 3 7 12 20 33 42 45 42 32 15 4 1 0 0 0 0 0 0 0 0 0 0 0 0 0 0 0 0 0 0 0 0 0 0 0
0 0 0 0 0 0 1 1 2 4 6 9 16 22 24 23 15 6 1 0 0 0 0 0 0 0 0 0 0 0 0 0 0 0 0 0 0 0 0 0 0 0 0
0 0 0 0 0 0 0 0 1 2 2 3 4 5 5 5 2 0 0 0 0 0 0 0 0 0 0 0 0 0 0 0 0 0 0 0 0 0 0 0 0 0 0
0 0 0 0 0 0 0 0 0 1 1 1 1 0 0 0 0 0 0 0 0 0 0 0 0 0 0 0 0 0 0 0 0 0 0 0 0 0 0 0 0 0 0
0 0 0 1 1 0 0 0 0 0 0 0 0 0 0 0 0 0 0 0 0 0 0 0 0 0 0 0 0 0 0 0 0 0 0 0 0 0 0 0 0 0 0
0 0 0 2 3 2 0 0 0 0 0 0 0 0 0 0 0 0 0 0 0 0 0 0 0 0 0 0 0 0 0 0 0 0 0 0 0 0 0 0 0 0 0
1 1 0 2 3 2 0 0 0 0 0 0 0 0 0 0 0 0 0 0 0 0 0 0 0 0 0 0 0 0 0 0 0 0 0 0 1 1 1 1 1 1 1
2 2 1 1 1 1 0 0 0 0 0 0 0 0 0 0 0 0 0 0 0 0 0 0 0 0 0 0 0 0 0 0 0 0 0 0 1 2 1 1 1 2 1
2 2 1 0 0 0 0 0 0 0 0 0 0 0 0 0 0 0 0 0 0 0 0 0 0 0 0 0 0 0 0 0 0 0 0 0 0 1 1 0 0 1 1
1 1 1 0 0 0 0 0 0 0 0 0 0 0 0 0 0 0 0 0 0 0 0 0 0 0 0 0 0 0 0 0 0 0 0 0 0 0 0 0 0 0 0
1 0 0 0 0 0 0 0 0 0 0 0 0 0 0 0 0 0 0 0 0 0 0 0 0 0 0 0 0 0 0 0 0 0 0 0 0 0 0 0 0 0 0
1 0 1 1 1 1 0 0 0 0 0 0 0 0 0 0 0 0 0 0 0 0 0 0 0 0 0 0 0 0 0 0 0 0 0 1 1 1 1 1 2 2 2
2 1 1 2 3 2 1 0 0 0 0 0 0 0 0 0 0 0 0 0 0 0 0 0 0 0 0 0 0 0 0 0 0 0 0 4 9 11 9 9 9 9 11
2 1 0 1 3 4 2 1 0 0 0 0 0 0 0 0 0 0 0 0 0 0 0 0 0 0 0 0 0 0 0 0 0 0 0 5 15 21 20 16 15 17 20
3 2 1 3 6 7 6 4 2 0 0 0 0 0 0 0 0 0 0 0 0 0 0 0 0 0 0 0 0 0 0 0 0 0 0 2 8 15 17 15 12 13 16
8 7 7 9 15 17 13 8 4 1 0 0 0 0 0 0 0 0 0 0 0 0 0 0 0 0 0 0 0 0 0 0 0 0 0 0 1 3 6 7 6 6 6
27 25 23 26 32 32 23 12 4 1 0 0 0 0 0 0 0 0 0 0 0 0 0 0 0 0 0 0 0 0 0 0 0 0 0 0 0 0 1 2 3 2 2
55 53 52 56 60 53 37 20 8 2 1 1 1 0 0 0 0 0 0 0 0 0 0 0 0 0 0 0 0 0 0 0 0 0 0 0 0 0 0 1 1 1 1
74 76 81 84 85 74 54 35 19 7 2 1 1 0 0 0 0 0 0 0 0 0 0 0 0 0 0 0 0 0 0 0 0 0 0 0 0 0 0 0 0 0 0
79 85 92 95 93 84 67 47 25 9 2 1 1 0 0 0 0 0 0 0 0 0 0 0 0 0 0 0 0 0 0 0 0 0 0 0 0 0 0 0 0 0 0
77 84 93 95 90 80 64 41 19 6 1 0 0 0 0 0 0 0 0 0 0 0 0 0 0 0 0 0 0 0 0 0 0 0 0 0 0 0 0 0 0 0 0
75 83 92 92 83 69 48 25 8 2 0 0 0 0 0 0 0 0 0 0 0 0 0 0 0 0 0 0 0 0 0 0 0 0 0 0 0 0 0 0 0 0 0
75 84 91 86 71 52 31 13 3 1 0 0 0 0 0 0 0 0 0 0 0 0 0 0 0 0 0 0 0 0 0 0 0 0 0 0 0 0 0 0 0 0 0
80 85 85 71 50 32 16 6 1 0 0 0 0 0 0 0 0 0 0 0 0 0 0 0 0 0 0 0 0 0 0 0 0 0 0 0 0 0 0 0 0 0 0
84 85 77 57 35 17 6 2 0 0 0 0 0 0 0 0 0 0 0 0 0 0 0 0 0 0 0 0 0 0 0 0 0 0 0 0 0 0 0 0 0 0 0

GEFSSE_con_probscp_024.txt.gz
Probability
0 0 0 0 0 0 0 1 1 2 2 3 2 1 0 0 0 0 0 0 0 0 0 0 0 0 0 0 0 0 0 0 0 0 0 0 0 0 0 0 0 0 0
0 0 0 0 0 0 0 0 1 2 3 4 4 2 1 0 0 0 0 0 0 0 0 0 0 0 0 0 0 0 0 0 0 0 0 0 0 0 0 0 0 0 0
0 0 0 0 0 0 0 0 0 1 3 4 3 2 1 0 0 0 0 0 0 0 0 0 0 0 0 0 0 0 0 0 0 0 0 0 0 0 0 0 0 0 0
0 0 0 0 0 0 0 0 0 1 2 3 2 1 0 0 0 0 0 0 0 0 0 0 0 0 0 0 0 0 0 0 0 0 0 0 0 0 0 0 0 0 0
0 0 0 0 0 0 0 0 0 1 2 2 2 1 0 0 0 0 0 0 0 0 0 0 0 0 0 0 0 0 0 0 0 0 0 0 0 0 0 0 0 0 0
0 0 0 0 0 0 0 0 0 0 1 1 1 1 0 0 0 0 0 0 0 0 0 0 0 0 0 0 0 0 0 0 0 0 0 0 0 0 0 0 0 0 0
0 0 0 0 0 0 0 0 0 0 0 0 0 0 0 0 0 0 0 0 0 0 0 0 0 0 0 0 0 0 0 0 0 0 0 0 0 0 0 0 0 0 0
0 0 0 0 0 0 0 0 0 0 0 0 0 0 0 0 0 0 0 0 0 0 0 0 0 0 0 0 0 0 0 0 0 0 0 0 0 0 0 0 0 0 0
0 0 0 0 0 0 0 0 0 0 0 0 0 0 0 0 0 0 0 0 0 0 0 0 0 0 0 0 0 0 0 0 0 0 0 0 0 0 0 0 0 0 0
0 0 0 0 0 0 0 0 0 0 0 0 0 0 0 0 0 0 0 0 0 0 0 0 0 0 0 0 0 0 0 0 0 0 0 0 0 0 0 0 0 0 0
0 0 0 0 0 0 0 0 0 0 0 0 0 0 0 0 0 0 0 0 0 0 0 0 0 0 0 0 0 0 0 0 0 0 0 0 0 0 0 0 0 0 0
0 0 0 0 0 0 0 0 0 0 0 0 0 0 0 0 0 0 0 0 0 0 0 0 0 0 0 0 0 0 0 0 0 0 0 0 0 0 0 0 0 0 0
0 0 0 0 0 0 0 0 0 0 0 0 0 0 0 0 0 0 0 0 0 0 0 0 0 0 0 0 0 0 0 0 0 0 0 0 0 0 1 2 1 1 0
0 0 0 0 1 1 1 0 0 0 0 0 0 1 1 0 0 0 0 0 0 0 0 0 0 0 0 0 0 0 0 0 0 0 0 1 1 1 1 2 2 1 1
1 1 2 2 3 4 3 1 0 0 0 0 0 1 2 1 1 1 2 2 1 1 1 0 0 0 0 0 0 0 0 0 0 0 0 1 1 1 1 1 1 1 0
6 7 8 9 11 12 8 4 1 0 1 1 1 3 5 7 9 10 11 11 11 10 7 3 0 0 0 0 0 0 0 0 0 0 0 0 1 1 1 1 1 0 0
22 24 24 23 27 27 20 12 7 5 6 8 9 11 14 18 26 34 36 35 32 25 15 7 2 1 1 0 0 0 0 0 0 0 0 0 0 1 1 1 1 1 1
50 50 47 43 47 49 42 33 26 20 18 21 27 31 34 39 51 65 66 57 45 31 17 9 5 3 2 1 1 0 0 0 0 0 0 0 0 0 0 1 1 2 2
74 73 70 67 69 72 69 63 55 45 40 43 49 55 59 61 68 73 69 55 39 23 12 7 5 3 2 1 0 0 0 0 0 0 0 0 0 0 0 0 1 1 1
86 85 86 86 87 89 89 85 77 69 63 59 57 60 61 59 57 53 46 35 23 13 7 4 2 1 1 0 0 0 0 0 0 0 0 0 0 0 0 0 0 0 0
88 90 93 95 96 97 95 90 82 73 61 48 40 37 36 33 29 26 21 16 10 6 3 1 1 0 0 0 0 0 0 0 0 0 0 0 0 0 0 0 0 0 0
86 90 96 98 99 97 92 84 73 57 38 21 14 12 11 10 9 8 6 4 3 1 1 0 0 0 0 0 0 0 0 0 0 0 0 0 0 0 0 0 0 0 0
77 86 94 98 98 93 86 75 61 42 21 8 3 2 2 2 2 1 1 0 0 0 0 0 0 0 0 0 0 0 0 0 0 0 0 0 0 0 0 0 0 0 0
72 82 92 97 95 89 81 70 55 37 19 7 2 0 0 0 0 0 0 0 0 0 0 0 0 0 0 0 0 0 0 0 0 0 0 0 0 0 0 0 0 0 0
82 87 93 94 89 80 71 62 48 32 16 6 1 0 0 0 0 0 0 0 0 0 0 0 0 0 0 0 0 0 0 0 0 0 0 0 0 0 0 0 0 0 0
93 94 94 91 83 70 60 52 42 26 11 3 0 0 0 0 0 0 0 0 0 0 0 0 0 0 0 0 0 0 0 0 0 0 0 0 0 0 0 0 0 0 0

GEFSSE_con_probscp_030.txt.gz
Probability
1 2 3 2 1 0 0 0 0 0 0 0 0 0 0 0 1 1 1 0 0 0 0 0 0 0 0 0 0 0 0 0 0 0 0 0 0 0 0 0 0 0 0
2 2 2 2 1 0 0 0 0 0 0 0 0 0 0 0 0 0 0 0 0 0 0 0 0 0 0 0 0 0 0 0 0 0 0 0 0 0 0 0 0 0 0
2 1 1 1 0 0 0 0 0 0 0 0 0 0 0 0 0 0 0 0 0 0 0 0 0 0 0 0 0 0 0 0 0 0 0 0 0 0 0 0 0 0 0
1 0 0 0 0 0 0 0 0 0 0 0 0 0 0 0 0 0 0 0 0 0 0 0 0 0 0 0 0 0 0 0 0 0 0 0 0 0 0 0 0 0 0
0 0 0 0 0 0 0 0 0 0 0 0 0 0 0 0 0 0 0 0 0 0 0 0 0 0 0 0 0 0 0 0 0 0 0 0 0 0 0 0 0 0 0
0 0 0 0 0 0 0 0 0 0 0 0 0 0 0 0 0 0 0 0 0 0 0 0 0 0 0 0 0 0 0 0 0 1 1 0 0 0 0 0 0 0 0
2 1 0 0 0 0 0 0 0 0 0 0 0 0 0 0 0 0 0 0 0 0 0 0 0 0 0 0 0 0 0 0 0 1 1 1 1 2 1 0 0 0 0
8 5 1 0 0 0 0 0 0 0 0 0 0 0 0 0 0 0 0 0 0 0 0 0 0 0 0 0 0 0 0 0 0 1 1 1 4 7 4 1 1 0 0
11 6 2 0 0 0 0 0 0 0 0 0 0 0 0 0 0 0 0 0 0 0 0 0 0 0 0 0 0 0 0 0 0 0 0 3 8 10 6 3 2 1 0
8 6 2 0 0 0 0 0 0 0 0 0 0 0 0 0 0 0 0 0 0 0 0 0 0 0 0 0 0 0 0 0 0 0 0 4 9 8 4 2 2 1 0
6 6 2 0 0 0 0 0 0 0 0 0 0 0 0 0 0 0 3 4 2 0 0 0 0 0 0 0 0 0 0 0 0 1 2 5 7 5 1 1 1 0 0
6 6 4 1 0 0 1 1 0 0 0 0 0 0 0 0 2 5 10 11 5 1 0 0 0 0 0 0 0 0 0 0 1 2 4 6 6 2 0 0 0 0 0
2 4 7 8 6 5 7 6 2 1 2 2 1 2 1 2 7 14 18 14 7 2 0 0 0 0 0 0 0 0 0 0 1 3 5 7 7 3 0 0 0 0 0
2 4 12 23 22 19 24 21 10 8 10 12 14 15 12 13 18 26 27 19 9 4 3 2 2 1 0 0 0 0 0 0 1 2 4 6 8 5 2 1 0 0 0
15 11 21 42 48 45 49 44 28 24 29 34 40 39 33 33 39 45 46 37 26 22 20 15 12 10 6 2 2 1 1 1 0 1 2 4 7 6 4 2 1 1 1
41 34 42 63 74 75 74 67 51 46 51 59 66 65 59 61 67 72 70 62 56 56 53 44 37 30 19 11 9 6 4 2 3 3 2 2 4 4 3 1 1 1 2
68 66 70 81 90 93 91 84 71 64 70 79 84 85 83 86 90 91 87 80 78 79 77 71 65 53 39 29 22 14 7 4 5 6 4 1 1 1 1 0 0 1 1
86 89 91 91 96 99 98 95 85 79 85 92 92 93 96 97 97 95 91 86 83 81 78 76 72 62 49 39 27 15 8 4 4 4 2 0 0 0 0 0 0 0 0
96 98 98 97 98 100 100 99 94 92 93 90 86 88 93 96 95 93 87 80 74 67 60 56 54 47 37 27 17 8 4 2 1 0 0 0 0 0 0 0 0 0 0
99 100 100 100 100 100 100 99 98 96 90 80 74 75 81 86 87 84 76 66 56 45 36 29 25 21 15 9 4 1 0 0 0 0 0 0 0 0 0 0 0 0 0
99 100 100 100 100 100 100 99 97 92 82 72 64 60 61 64 66 65 56 44 33 25 17 10 7 5 4 2 0 0 0 0 0 0 0 0 0 0 0 0 0 0 0
98 99 100 100 100 100 100 98 93 84 74 64 54 44 39 37 38 37 32 21 15 11 6 2 1 1 1 0 0 0 0 0 0 0 0 0 0 0 0 0 0 0 0
97 99 100 100 100 100 99 95 87 77 66 53 38 26 20 17 14 14 12 8 5 3 1 0 0 0 0 0 0 0 0 0 0 0 0 0 0 0 0 0 0 0 0
97 98 100 100 100 99 98 93 85 76 64 44 24 13 8 5 2 2 3 2 1 1 0 0 0 0 0 0 0 0 0 0 0 0 0 0 0 0 0 0 0 0 0
97 98 99 99 98 95 93 90 84 74 57 33 14 7 3 1 0 0 0 0 0 0 0 0 0 0 0 0 0 0 0 0 0 0 0 0 0 0 0 0 0 0 0
97 98 99 98 95 91 87 85 79 67 45 22 9 5 2 0 0 0 0 0 0 0 0 0 0 0 0 0 0 0 0 0 0 0 0 0 0 0 0 0 0 0 0

GEFSSE_con_probscp_036.txt.gz
Probability
0 0 4 10 13 11 10 10 10 7 6 6 6 3 2 3 4 6 8 7 5 2 1 0 0 0 0 0 0 0 0 0 0 0 0 0 0 0 0 0 0 0 0
1 1 5 12 13 9 6 6 6 5 4 3 3 2 1 2 4 6 6 5 3 2 1 0 0 0 0 0 0 0 0 0 0 0 0 0 0 0 0 0 0 0 0
3 1 4 9 8 4 2 2 2 2 1 1 1 0 0 1 2 3 3 2 1 1 0 0 0 0 0 0 0 0 0 0 0 0 0 0 0 0 0 0 0 0 0
2 1 1 3 3 1 0 0 0 0 0 0 0 0 0 0 0 1 1 0 0 0 0 0 0 0 0 0 0 0 0 0 0 0 0 0 0 0 0 0 0 0 0
1 0 0 1 1 0 0 0 0 0 0 0 0 0 0 0 0 0 0 0 0 0 0 0 0 0 0 0 0 0 0 0 0 0 0 0 0 0 0 0 0 0 0
0 0 0 0 0 0 0 0 0 0 0 0 0 0 0 0 0 0 0 0 0 0 0 0 0 0 0 0 0 0 0 0 0 0 0 0 0 0 0 0 0 0 0
0 0 0 0 0 0 0 0 0 0 0 0 0 0 0 0 0 0 0 0 0 0 0 0 0 0 0 0 0 0 0 0 0 0 0 0 0 0 1 0 0 0 0
0 0 0 0 0 0 0 0 0 0 0 0 0 0 0 0 0 0 0 0 0 0 0 0 0 0 0 0 0 0 0 0 0 0 0 0 0 1 1 0 0 0 0
0 0 0 0 0 0 0 0 0 0 0 0 0 0 0 0 0 0 0 0 0 0 0 0 0 0 0 0 0 0 0 0 0 0 0 0 0 1 0 0 0 0 0
0 0 0 0 0 0 0 0 0 0 0 0 0 0 0 0 0 0 0 0 0 0 0 0 0 0 0 0 0 0 0 0 0 0 0 0 1 1 0 0 0 0 0
0 0 0 0 0 0 0 0 0 0 0 0 0 0 0 0 0 0 0 0 0 0 0 0 0 0 0 1 0 0 0 0 0 0 0 1 1 0 0 0 0 0 0
0 0 0 0 0 0 0 0 0 0 0 0 0 0 0 0 0 0 0 0 0 0 0 0 0 0 0 0 0 0 0 0 0 0 0 1 1 0 0 0 0 0 0
0 0 0 0 0 0 0 0 0 0 0 0 0 0 0 0 0 0 0 0 0 0 0 0 0 0 0 0 0 0 0 0 0 0 0 1 1 1 1 1 1 0 0
1 1 0 0 0 0 0 0 0 0 0 0 0 0 0 0 0 0 0 0 0 0 0 0 0 1 0 0 0 0 0 0 0 0 0 2 4 4 3 2 1 1 1
4 3 1 0 0 0 0 0 0 0 0 0 0 0 0 0 0 0 0 0 0 0 0 0 1 1 0 0 0 0 0 0 0 0 1 5 10 12 10 9 7 5 4
12 8 4 2 1 0 1 0 0 0 0 0 0 0 0 0 0 0 0 0 0 0 0 0 1 0 0 0 0 0 0 0 0 0 1 4 11 15 18 18 15 10 8
24 19 13 9 6 6 5 3 2 3 2 1 1 1 0 0 1 1 1 0 0 0 0 1 1 0 0 0 0 0 0 0 0 0 0 2 6 11 16 18 16 11 8
35 34 31 27 26 25 22 16 12 11 11 9 7 6 4 3 4 3 2 2 1 0 1 1 1 0 0 0 0 0 0 0 0 0 0 0 1 4 7 9 9 7 6
44 47 52 55 57 55 51 41 32 27 26 25 23 18 15 12 9 7 4 3 3 2 2 2 1 0 0 0 0 0 0 0 0 0 0 0 0 1 1 2 3 3 2
47 53 66 76 79 78 76 69 57 48 43 41 38 33 28 23 17 12 8 6 5 4 2 1 0 0 0 0 0 0 0 0 0 0 0 0 0 0 0 0 0 0 0
46 53 67 80 85 87 87 84 74 61 50 44 41 36 30 24 18 13 10 7 5 3 1 0 0 0 0 0 0 0 0 0 0 0 0 0 0 0 0 0 0 0 0
45 51 63 75 85 89 89 83 72 58 47 39 31 25 19 15 12 11 9 6 2 1 0 0 0 0 0 0 0 0 0 0 0 0 0 0 0 0 0 0 0 0 0
48 55 62 72 83 88 85 77 66 53 43 33 22 12 8 6 6 6 5 2 0 0 0 0 0 0 0 0 0 0 0 0 0 0 0 0 0 0 0 0 0 0 0
53 57 64 73 82 84 80 73 65 53 41 28 15 7 4 3 2 2 1 0 0 0 0 0 0 0 0 0 0 0 0 0 0 0 0 0 0 0 0 0 0 0 0
55 59 66 74 78 77 73 66 59 48 33 19 9 3 1 1 0 0 0 0 0 0 0 0 0 0 0 0 0 0 0 0 0 0 0 0 0 0 0 0 0 0 0
58 62 68 73 74 72 67 59 51 40 25 13 5 2 0 0 0 0 0 0 0 0 0 0 0 0 0 0 0 0 0 0 0 0 0 0 0 0 0 0 0 0 0

GEFSSE_con_probscp_042.txt.gz
Probability
0 0 0 1 6 19 33 43 46 39 26 14 7 5 4 3 2 1 0 0 0 0 2 5 6 3 2 2 1 0 0 0 0 0 0 0 0 0 0 0 0 0 0
1 0 0 2 7 17 28 35 36 31 23 14 10 8 6 3 1 0 0 0 0 0 1 3 2 1 1 1 0 0 0 0 0 0 0 0 0 0 0 0 0 0 0
4 2 1 2 7 15 21 24 23 19 14 11 10 9 6 3 0 0 0 0 0 0 0 0 0 0 0 0 0 0 0 0 0 0 0 0 0 0 0 0 0 0 0
6 3 1 1 5 11 14 15 13 9 6 6 6 6 4 2 0 0 0 0 0 0 0 0 0 0 0 0 0 0 0 0 0 0 0 0 0 0 0 0 0 0 0
4 2 0 0 2 6 8 8 7 4 2 2 2 2 1 1 0 0 0 0 0 0 0 0 0 0 0 0 0 0 0 0 0 0 0 0 0 0 0 0 0 0 0
2 1 0 0 0 2 3 3 2 1 0 0 0 0 0 0 0 0 0 0 0 0 0 0 0 0 0 0 0 0 0 0 0 0 0 0 0 0 0 0 0 0 0
2 1 0 0 0 0 1 1 0 1 1 0 0 0 0 0 0 0 0 0 0 0 0 0 0 0 0 0 0 0 0 0 0 0 0 0 0 0 0 0 0 0 0
1 0 0 0 0 0 0 0 1 2 2 1 0 0 0 0 0 0 0 0 0 0 0 0 0 0 0 0 0 0 0 0 0 0 0 0 0 0 0 0 0 0 0
0 0 0 0 0 1 1 1 2 3 2 1 0 0 0 0 0 0 0 0 0 0 0 0 0 0 0 0 0 0 0 0 0 0 0 0 0 0 0 0 0 0 0
0 0 0 0 0 0 1 1 2 2 2 1 0 0 0 0 0 0 0 0 0 0 0 0 0 0 0 0 0 0 1 0 0 0 0 0 0 0 0 0 0 0 0
0 0 0 0 0 0 0 1 1 1 1 0 0 0 0 0 0 0 0 0 0 0 0 0 0 0 0 0 0 0 0 0 0 0 0 0 0 0 0 0 0 0 0
0 0 0 0 0 0 0 0 0 0 0 0 0 0 0 0 0 0 0 0 0 0 0 0 0 0 0 0 0 0 0 0 0 0 0 0 0 0 0 0 0 0 0
0 0 0 0 0 0 0 0 0 0 0 0 0 0 0 0 0 0 0 0 0 0 0 0 0 0 0 0 0 0 0 0 0 0 1 0 0 0 0 0 0 0 0
0 0 0 0 0 0 0 0 0 0 0 0 0 0 0 0 0 0 0 0 0 0 0 0 0 0 0 0 0 0 0 0 0 1 3 3 2 1 0 0 0 0 1
0 0 0 0 0 0 0 0 0 0 0 0 0 0 0 0 0 0 0 0 0 0 0 0 0 0 0 0 0 0 0 0 0 1 5 7 7 5 2 2 1 1 2
0 1 1 2 1 0 0 0 0 0 0 0 0 0 0 0 0 0 0 0 0 0 0 0 0 0 0 0 0 0 0 0 0 1 4 8 10 7 5 5 4 4 3
2 2 3 3 2 1 1 0 0 0 0 0 0 0 0 0 0 0 0 0 0 0 0 0 0 0 0 0 0 0 0 0 0 0 1 4 5 7 7 8 7 6 4
10 8 7 7 7 5 3 2 1 0 0 0 0 0 0 0 0 0 0 0 0 0 0 0 0 0 0 0 0 0 0 0 0 0 0 0 1 3 5 7 7 5 3
22 21 20 20 17 12 7 5 3 2 1 1 0 0 0 0 0 0 0 0 1 1 1 0 0 0 0 0 0 0 0 0 0 0 0 0 0 0 1 3 3 2 1
33 33 34 34 30 24 16 13 10 7 6 4 2 2 2 3 3 3 3 3 3 3 1 0 0 0 0 0 0 0 0 0 0 0 0 0 0 0 0 0 0 0 0
35 35 36 37 39 38 33 28 22 16 12 9 6 5 6 7 8 9 7 6 6 4 1 0 0 0 0 0 0 0 0 0 0 0 0 0 0 0 0 0 0 0 0
34 33 32 36 44 50 49 43 35 25 17 14 12 10 9 10 11 10 8 6 5 3 1 0 0 0 0 0 0 0 0 0 0 0 0 0 0 0 0 0 0 0 0
31 32 34 39 48 56 57 55 48 38 28 23 20 14 8 6 8 7 4 2 1 1 0 0 0 0 0 0 0 0 0 0 0 0 0 0 0 0 0 0 0 0 0
27 28 33 41 49 55 60 60 57 51 43 33 24 16 6 2 2 2 1 0 0 0 0 0 0 0 0 0 0 0 0 0 0 0 0 0 0 0 0 0 0 0 0
22 24 29 37 45 52 58 59 56 51 43 33 22 13 5 1 0 0 0 0 0 0 0 0 0 0 0 0 0 0 0 0 0 0 0 0 0 0 0 0 0 0 0
19 22 27 33 40 49 55 56 52 45 35 27 19 10 4 1 0 0 0 0 0 0 0 0 0 0 0 0 0 0 0 0 0 0 0 0 0 0 0 0 0 0 0

GEFSSE_con_probscp_048.txt.gz
Probability
1 1 1 0 0 0 0 1 1 1 1 1 1 0 0 0 0 0 0 0 0 0 0 0 0 0 0 0 0 0 0 0 0 0 0 0 0 0 0 0 0 0 0
3 3 2 1 0 0 2 4 5 5 6 6 5 3 1 0 0 0 0 0 0 0 0 0 0 0 0 0 0 0 0 0 0 0 0 0 0 0 0 0 0 0 0
5 4 2 1 0 1 5 12 15 15 17 18 15 11 6 2 0 0 0 0 0 0 0 0 0 0 0 0 0 0 0 0 0 0 0 0 0 0 0 0 0 0 0
6 4 2 1 0 2 10 23 32 35 36 33 28 21 13 6 2 0 0 0 0 0 0 0 0 0 0 0 0 0 0 0 0 0 0 0 0 0 0 0 0 0 0
4 3 2 1 1 4 14 29 45 53 52 45 36 27 18 10 3 0 0 0 0 0 0 0 0 0 0 0 0 0 0 0 0 0 0 0 0 0 0 0 0 0 0
2 1 1 0 1 5 15 31 47 56 56 48 37 27 19 10 3 0 0 0 0 0 0 0 0 0 0 0 0 0 0 0 0 0 0 0 0 0 0 0 0 0 0
2 1 0 0 1 5 15 29 43 52 53 46 34 23 15 7 2 0 0 0 0 0 0 0 0 0 0 0 0 0 0 0 0 0 0 0 0 0 0 0 0 0 0
2 1 0 1 1 4 11 22 35 43 44 38 28 18 10 4 0 0 0 0 0 0 0 0 0 0 0 0 0 0 0 0 0 0 0 0 0 0 0 0 0 0 0
1 0 0 0 0 2 5 11 20 26 28 26 20 12 5 1 0 0 0 0 0 0 0 0 0 0 0 0 0 0 0 0 0 0 0 0 0 0 0 0 0 0 0
0 0 0 0 0 0 1 4 7 11 12 12 10 6 2 0 0 0 0 0 0 0 0 0 0 0 0 0 0 0 0 0 0 0 0 0 0 0 0 0 0 0 0
0 0 0 0 0 0 0 0 1 3 3 3 2 1 0 0 0 0 0 0 0 0 0 0 0 0 0 0 0 0 0 0 0 0 1 1 1 0 0 0 0 0 0
0 0 0 0 0 0 0 0 0 0 0 0 0 0 0 0 0 0 0 0 0 0 0 0 0 0 0 0 0 0 0 0 0 0 1 1 1 0 0 0 0 0 0
0 0 0 0 0 0 0 0 0 0 0 0 0 0 0 0 0 0 0 0 0 0 0 0 0 0 0 0 0 0 0 0 0 0 1 1 0 0 0 0 0 0 0
0 0 0 0 0 0 0 0 0 0 0 1 1 1 0 0 0 0 0 0 0 0 0 0 0 0 0 0 0 0 0 0 0 0 0 0 0 0 0 0 0 0 0
0 0 0 0 0 0 0 0 0 0 0 1 1 1 0 0 1 1 1 0 0 0 0 0 0 0 0 0 0 0 0 0 0 1 1 1 1 0 0 0 0 0 0
1 0 0 0 0 0 0 0 0 0 0 0 1 1 1 1 3 3 2 2 1 0 0 1 1 2 1 1 0 0 0 0 1 2 2 1 1 2 2 1 1 0 0
3 2 0 0 1 1 1 0 0 0 0 1 2 3 4 6 8 9 9 8 7 5 5 6 6 4 4 3 3 2 1 0 1 1 1 1 2 4 4 2 1 0 0
6 5 2 2 3 4 4 2 2 3 4 4 6 8 11 14 18 21 22 25 26 22 20 18 15 10 8 8 7 6 2 2 3 2 1 1 3 4 4 3 2 1 0
10 9 7 6 8 9 9 8 8 10 13 13 14 17 22 27 31 35 42 49 51 51 48 41 33 25 18 13 9 6 3 3 4 4 2 2 3 4 4 4 3 2 1
15 15 14 12 14 17 18 17 18 21 25 27 28 33 39 43 46 53 63 69 70 73 74 66 52 38 27 17 9 4 2 1 2 2 2 1 1 2 3 3 3 1 0
25 26 26 25 27 30 32 33 34 35 38 40 44 50 54 54 58 69 76 79 78 77 76 68 55 38 25 16 11 8 4 0 0 0 0 0 0 0 1 1 1 0 0
43 42 42 44 48 53 54 55 56 56 54 56 61 63 64 63 66 71 75 75 71 67 62 55 45 32 19 11 13 14 9 3 1 0 0 0 0 0 0 0 0 0 0
57 55 56 60 65 72 74 74 74 73 71 72 73 70 65 64 64 63 62 61 59 55 49 43 35 25 15 7 7 11 9 5 2 0 0 0 0 0 0 0 0 0 0
62 61 62 64 68 73 77 78 79 79 79 77 74 66 55 50 47 45 43 44 44 40 35 28 20 14 8 3 2 3 4 3 2 0 0 0 0 0 0 0 0 0 0
64 62 62 63 65 66 68 72 76 78 77 73 66 55 41 30 25 24 22 23 24 21 17 11 6 4 2 1 0 0 0 1 1 0 0 0 0 0 0 0 0 0 0
62 61 59 62 64 62 62 68 75 77 75 70 60 48 33 20 16 14 11 10 11 9 6 3 1 0 0 0 0 0 0 0 0 0 0 0 0 0 0 0 0 0 0

GEFSSE_con_probscp_054.txt.gz
Probability
57 55 51 37 17 5 1 0 0 0 0 0 0 0 0 0 0 0 0 0 0 0 0 0 0 0 0 0 0 0 0 0 0 0 0 0 0 0 0 0 0 0 0
69 65 60 44 22 8 2 0 0 0 0 0 0 0 0 0 0 0 0 0 0 0 0 0 0 0 0 0 0 0 0 0 0 0 0 0 0 0 0 0 0 0 0
78 74 68 54 31 15 6 2 0 0 0 0 0 0 0 0 0 0 0 0 0 0 0 0 0 0 0 0 0 0 0 0 0 0 0 0 0 0 0 0 0 0 0
73 72 73 65 44 23 11 4 1 1 0 0 0 0 0 0 0 0 0 0 0 0 0 0 0 0 0 0 0 0 0 0 0 0 0 0 0 0 0 0 0 0 0
63 70 79 76 58 34 17 7 3 2 1 0 0 0 0 0 0 0 0 0 0 0 0 0 0 0 0 0 0 0 0 0 0 0 0 0 0 0 0 0 0 0 0
60 69 80 83 71 47 24 11 6 4 1 0 0 0 0 0 0 0 0 0 0 0 0 0 0 0 0 0 0 0 0 0 0 0 0 0 0 0 0 0 0 0 0
63 65 74 82 77 56 31 15 9 6 3 2 1 1 1 0 0 0 0 0 0 0 0 0 0 0 0 0 0 0 0 0 0 0 0 0 0 0 1 1 0 0 0
62 59 63 71 70 57 35 17 11 7 6 5 4 3 2 1 0 0 0 0 0 0 0 0 0 0 0 0 0 0 0 0 0 0 0 0 0 1 1 1 0 0 0
55 47 44 47 50 44 28 16 11 8 6 6 4 3 2 1 0 0 0 0 0 0 0 0 0 0 0 0 0 0 0 0 0 0 0 0 2 3 2 1 0 0 0
45 32 21 21 24 21 14 10 9 6 4 3 2 1 1 0 0 0 0 0 0 0 0 0 0 0 0 0 0 0 0 0 0 0 0 2 5 6 3 0 0 0 0
40 24 9 5 6 6 5 4 4 3 1 1 1 0 0 0 0 0 0 0 0 0 0 0 0 0 0 0 0 0 0 0 0 0 2 6 10 8 4 0 0 0 0
41 22 5 0 0 1 2 2 1 1 0 0 0 0 0 0 0 0 0 0 0 0 0 0 0 0 0 0 0 0 0 0 0 0 4 10 13 10 5 1 0 0 0
38 20 4 0 0 2 3 3 1 1 1 1 1 0 0 0 0 0 0 0 0 0 0 0 0 0 0 0 0 0 0 0 0 2 6 12 15 12 6 2 1 0 0
33 18 6 5 6 11 13 7 2 2 2 2 2 1 0 0 0 0 0 0 0 0 1 1 1 0 0 0 0 0 0 0 1 4 9 15 17 14 9 4 1 0 0
36 22 15 19 25 32 32 19 7 4 3 3 4 2 0 0 1 1 1 1 1 4 6 5 3 4 4 3 1 1 1 2 4 7 12 18 21 19 14 9 4 1 1
48 37 34 43 51 55 49 31 15 7 4 5 7 7 4 2 4 7 9 9 10 13 20 18 14 15 15 10 6 5 5 7 9 10 12 15 22 25 23 17 11 7 4
64 61 58 61 67 69 58 41 23 11 7 9 14 18 15 11 15 23 26 27 27 31 41 43 37 36 33 24 19 16 14 17 19 17 13 12 17 26 29 26 22 15 11
79 80 75 68 72 74 65 48 31 19 18 24 32 37 34 29 35 46 48 46 48 53 63 67 63 59 54 45 38 33 31 31 29 24 18 13 15 22 27 30 28 23 19
88 88 83 76 76 76 70 57 41 36 41 50 58 61 58 54 57 66 67 64 66 72 75 76 75 73 69 60 49 43 41 37 31 26 22 17 17 18 19 22 23 23 21
91 90 86 83 82 79 75 67 58 56 63 72 79 82 79 73 74 77 77 76 78 79 77 75 73 71 68 60 48 39 33 27 24 21 18 16 14 12 11 10 11 13 16
91 88 83 81 83 83 79 76 75 74 78 83 88 91 88 83 79 78 77 79 79 76 74 71 68 64 59 51 39 28 17 12 12 11 9 8 7 6 5 4 3 5 7
89 85 78 76 80 81 78 78 81 85 86 87 88 90 88 83 79 75 73 74 75 71 66 63 61 57 49 39 29 18 9 4 4 3 2 1 1 1 1 1 1 2 2
86 83 78 75 76 76 74 74 80 86 88 86 87 86 83 79 76 72 68 66 66 62 56 50 50 49 41 28 18 11 6 3 2 0 0 0 0 0 0 0 1 1 0
81 81 80 78 76 74 73 73 78 83 84 84 84 81 75 70 67 63 57 53 50 47 42 37 38 39 31 20 12 6 3 1 1 0 0 0 0 0 0 0 0 0 0
67 71 73 73 73 72 71 70 72 75 75 75 75 71 62 54 50 46 40 34 31 30 29 28 27 24 18 12 8 4 1 0 0 0 0 0 0 0 0 0 0 0 0
53 57 62 64 66 66 66 65 66 67 66 66 67 62 50 40 35 33 29 22 19 20 22 22 19 13 8 6 5 3 1 0 0 0 0 0 0 0 0 0 0 0 0

GEFSSE_con_probscp_060.txt.gz
Probability
1 1 1 0 0 0 0 0 0 0 0 0 0 1 2 2 2 1 0 0 0 0 0 0 0 0 0 0 0 0 0 0 0 0 0 0 0 0 0 0 0 0 0
4 3 2 2 2 2 1 0 0 0 0 0 0 0 1 1 1 0 0 0 0 0 0 0 0 0 0 0 0 0 0 0 0 0 0 0 0 0 0 0 0 0 0
13 9 5 5 6 7 5 2 0 0 0 0 0 0 0 0 0 0 0 0 0 0 0 0 0 0 0 0 0 0 0 0 0 0 0 0 0 0 0 0 0 0 0
27 18 10 9 10 11 9 4 1 0 0 0 0 0 0 0 0 0 0 0 0 0 0 0 0 0 0 0 0 0 0 0 0 0 0 0 0 0 0 0 0 0 0
35 25 16 13 12 12 11 6 2 0 0 0 0 0 0 0 0 0 0 0 0 0 0 0 0 0 0 0 0 0 0 0 0 0 0 0 0 0 0 0 0 0 0
37 28 20 18 15 12 11 8 3 1 0 0 0 0 0 0 0 0 0 0 0 0 0 0 0 0 0 0 0 0 0 0 0 0 0 0 0 0 0 0 0 0 0
39 30 22 21 19 16 13 9 5 2 1 0 0 0 0 0 0 0 0 0 0 0 0 0 0 0 0 0 0 0 0 0 0 0 0 0 0 0 0 0 0 0 0
43 33 22 19 20 19 14 11 8 3 1 0 0 0 0 0 0 0 0 0 0 0 0 0 0 0 0 0 0 0 0 0 0 0 0 0 0 0 0 0 0 0 0
46 36 24 18 18 16 12 11 8 4 1 0 0 0 0 0 0 0 0 0 0 0 0 0 0 0 0 0 0 0 0 0 0 0 0 0 1 1 0 0 0 0 0
40 36 27 21 18 14 11 9 8 5 1 0 0 1 1 0 0 0 0 0 0 0 0 0 0 0 0 0 0 0 0 0 0 0 0 1 2 2 0 0 0 0 0
30 29 28 26 24 19 13 10 9 8 3 1 1 2 2 1 0 0 0 0 0 0 0 0 0 0 0 0 0 0 0 0 0 0 0 2 3 2 1 0 0 0 0
24 23 23 25 25 22 19 15 14 11 6 3 3 3 2 1 0 0 0 0 0 0 0 0 0 0 0 0 0 0 0 0 0 0 1 4 6 5 3 1 0 0 0
22 20 18 19 19 19 21 19 15 11 6 4 3 2 1 0 0 0 0 0 0 0 0 0 0 0 0 0 0 0 0 0 0 0 3 7 10 11 9 6 3 2 1
20 17 15 13 12 14 16 15 10 6 4 3 2 1 0 0 0 0 0 0 0 0 0 0 0 0 0 0 0 0 0 0 0 1 6 12 17 18 18 14 9 6 4
25 22 17 12 9 10 10 7 3 2 1 1 1 0 0 0 0 0 0 0 0 0 0 0 0 0 0 0 0 0 0 0 0 2 8 17 24 26 24 20 15 10 7
37 31 21 11 7 6 5 3 1 0 0 0 0 0 0 0 0 0 0 0 0 0 0 0 0 0 0 0 0 0 0 0 1 4 10 18 26 30 29 25 21 15 11
47 41 27 14 7 4 2 1 1 0 0 0 0 0 0 0 0 0 0 0 0 0 0 0 0 0 0 0 0 0 0 0 1 5 11 16 20 25 31 32 30 27 23
56 53 42 29 18 11 7 4 3 2 1 1 1 0 0 0 0 0 0 0 1 1 0 0 0 0 0 0 0 0 0 0 1 3 7 10 11 14 22 30 36 37 36
64 65 62 53 42 33 24 16 11 8 6 6 4 3 3 3 2 2 2 2 3 3 2 1 1 0 0 0 0 0 0 0 0 1 2 4 4 5 8 18 29 36 37
70 73 75 71 65 57 48 39 30 22 17 15 12 10 9 10 12 11 9 7 7 8 5 3 1 0 0 0 0 1 0 0 0 0 0 0 1 1 1 7 16 22 27
70 74 76 77 74 70 64 58 51 40 31 27 22 17 14 18 24 25 20 15 14 12 8 3 1 1 1 1 0 0 0 0 0 0 0 0 0 0 0 2 4 8 11
60 63 66 68 70 69 67 65 60 50 39 32 25 18 17 22 28 30 27 23 20 15 10 6 4 4 3 3 2 0 0 0 0 0 0 0 0 1 0 0 0 1 2
44 47 49 52 57 60 61 62 59 49 38 30 24 19 18 22 25 25 24 24 21 16 12 10 9 7 6 6 4 1 0 0 0 0 0 0 0 0 0 0 0 0 0
32 33 35 39 44 47 50 54 53 44 33 26 24 20 17 18 19 17 16 17 16 14 12 11 9 8 8 8 6 3 1 0 0 0 0 0 0 0 0 0 0 0 0
22 22 25 30 33 34 37 40 41 36 28 24 22 19 15 12 12 11 10 10 11 10 9 8 7 6 6 6 5 4 2 1 0 0 0 0 0 0 0 0 0 0 0
17 17 20 24 26 28 29 30 31 29 25 22 19 17 13 9 8 8 8 8 8 7 6 5 5 4 4 4 4 4 3 1 0 0 0 0 0 0 0 0 0 0 0

GEFSSE_con_probscp_066.txt.gz
Probability
2 1 0 0 1 3 7 12 16 17 17 16 11 5 1 0 0 0 0 0 0 0 0 0 0 0 0 1 2 2 1 1 1 1 0 0 0 0 0 0 0 0 0
4 3 1 0 0 1 4 9 14 16 17 17 13 8 3 1 0 0 0 0 0 0 0 0 0 0 0 1 1 1 0 0 0 0 0 0 0 0 0 0 0 0 0
7 5 2 1 0 0 1 5 10 15 17 18 14 10 5 2 1 0 1 1 0 0 0 0 0 0 0 0 0 0 0 0 0 0 0 0 0 0 0 0 0 0 0
15 11 6 3 1 1 1 5 11 16 17 16 12 8 6 4 2 1 2 2 1 0 0 0 0 0 0 0 0 0 0 0 0 0 0 0 0 0 0 0 0 0 0
25 21 13 8 6 4 4 6 12 17 16 12 8 6 6 5 4 3 3 3 1 0 0 0 0 0 0 0 0 0 0 0 0 0 0 0 0 0 0 0 0 0 0
33 28 21 16 13 11 9 8 10 16 16 12 8 8 7 6 4 3 3 3 2 1 0 0 0 0 0 0 0 0 0 0 0 0 0 0 0 0 0 0 0 0 0
38 33 27 23 21 18 15 12 12 16 18 17 14 11 8 5 3 3 3 2 2 1 0 0 0 0 0 0 0 0 0 0 0 0 0 0 0 0 0 0 0 0 0
44 41 35 29 24 22 20 18 18 20 20 20 19 14 9 5 3 3 2 1 1 0 0 0 0 0 0 0 0 0 0 0 0 0 0 0 0 0 0 0 0 0 0
50 50 46 37 29 25 25 24 24 23 21 21 19 15 10 6 3 3 2 1 0 0 0 0 0 0 0 0 0 0 0 0 0 0 0 0 0 0 0 0 0 0 0
50 52 51 45 37 33 30 28 26 24 22 20 18 14 10 6 4 3 2 1 0 0 0 0 0 0 0 0 0 0 0 0 0 0 0 0 0 0 0 1 1 0 0
45 46 47 44 43 42 37 31 29 26 22 19 16 13 9 5 3 3 2 1 0 0 0 0 0 0 0 0 0 0 0 0 0 0 0 1 2 3 3 3 3 2 1
42 43 41 39 42 46 44 39 35 31 24 17 14 12 7 4 3 3 3 1 0 0 0 0 0 0 0 0 0 0 0 0 0 0 1 2 5 7 6 7 7 5 3
42 42 39 37 40 44 48 48 44 39 30 19 13 9 5 3 3 3 3 2 1 0 0 0 0 0 0 0 0 0 0 0 0 0 1 4 8 10 10 10 10 7 5
40 40 40 39 40 43 48 51 48 42 33 21 13 7 4 3 3 3 3 2 1 0 1 1 1 0 0 0 0 0 0 0 0 0 1 4 9 11 14 15 14 10 7
34 37 40 42 43 45 47 47 45 39 30 21 12 7 4 3 3 3 2 1 0 0 1 1 1 0 0 0 0 0 0 0 0 0 0 4 9 12 16 21 22 16 11
27 31 37 41 44 46 45 43 39 34 27 19 12 7 4 3 3 2 1 0 0 0 0 0 0 0 0 0 0 0 0 0 0 0 0 2 7 10 16 24 28 23 19
26 31 37 42 43 44 43 40 34 28 22 15 9 5 4 3 3 1 0 0 0 0 0 0 0 0 0 0 0 0 0 0 0 0 0 2 4 8 14 21 27 26 23
30 35 42 45 44 40 36 31 27 20 13 8 5 4 3 3 3 1 0 0 0 0 0 0 0 0 0 0 0 0 0 0 0 0 1 2 4 6 9 15 20 22 22
31 37 43 45 42 35 27 21 16 12 7 4 3 3 3 3 3 2 1 0 0 0 0 0 0 0 0 0 0 0 0 0 0 0 1 2 3 4 7 9 13 15 16
30 35 40 41 38 31 23 15 9 6 5 4 3 3 3 3 3 2 1 1 1 1 1 0 0 0 0 0 0 0 0 0 0 0 1 1 2 3 4 5 6 8 11
31 34 37 37 35 31 25 17 9 7 6 5 3 3 2 2 3 2 2 2 2 2 1 1 1 1 1 1 1 1 0 0 0 0 1 1 1 1 1 1 2 4 6
30 31 33 34 34 33 29 22 15 9 5 4 3 2 1 2 3 3 2 2 2 2 2 1 2 2 2 2 3 3 2 0 0 0 1 2 2 1 0 0 0 1 2
25 25 25 26 27 28 28 27 21 12 5 2 1 1 1 1 3 3 2 2 3 3 3 3 3 3 3 3 4 5 3 1 0 0 1 1 2 1 0 0 0 0 0
19 18 17 17 18 19 22 26 24 16 7 2 0 0 0 0 1 1 1 1 2 3 3 3 3 4 5 5 5 5 4 2 1 1 0 0 1 1 0 0 0 0 0
15 15 15 16 16 16 17 19 19 14 8 3 1 1 0 0 0 0 0 0 1 1 1 2 2 3 4 5 5 5 5 3 2 2 1 1 0 0 0 0 0 0 0
14 15 16 18 18 17 15 14 12 9 7 4 3 2 1 0 0 0 0 0 0 0 0 1 1 1 2 2 3 4 4 4 3 3 2 2 1 0 0 0 0 0 0

GEFSSE_con_probscp_072.txt.gz
Probability
13 24 29 24 17 13 10 10 12 13 10 6 2 0 0 0 0 0 0 0 0 0 0 0 0 0 0 0 0 0 0 0 0 0 0 0 0 0 0 0 0 0 0
28 38 43 36 27 21 17 16 17 18 14 9 4 2 1 1 0 0 0 0 0 0 0 0 0 0 0 0 0 0 0 0 0 0 0 0 0 0 0 0 0 0 0
45 51 54 51 43 33 29 28 30 30 25 17 10 7 5 3 1 1 0 0 0 0 0 0 0 0 0 0 0 0 0 0 0 0 0 0 0 0 0 0 0 0 0
49 55 61 63 59 48 41 41 46 47 40 28 19 14 9 5 3 3 1 1 1 0 0 0 0 0 0 1 1 0 0 0 0 0 0 0 0 0 0 0 0 0 0
48 56 67 74 73 64 54 53 58 59 52 39 28 19 11 7 6 5 4 3 2 1 0 0 0 0 1 2 2 1 0 0 0 0 0 0 0 0 0 0 0 0 0
48 57 72 81 82 76 68 63 62 62 57 47 35 23 13 9 8 7 5 4 3 2 1 1 0 0 1 2 2 1 0 0 0 0 0 0 0 0 0 0 0 0 0
53 61 75 83 84 79 75 69 65 62 60 53 41 28 18 12 11 8 6 5 4 3 2 1 1 0 0 1 1 0 0 0 0 0 0 0 0 0 0 0 0 0 0
60 67 77 81 78 75 73 72 69 67 64 57 45 32 22 16 14 11 8 7 5 4 2 1 1 1 0 0 0 0 0 0 0 0 0 0 0 0 0 0 0 0 0
61 67 75 74 70 70 70 70 71 71 68 59 46 33 23 18 15 12 10 8 7 5 3 2 2 1 0 0 0 0 0 0 0 0 0 0 0 0 0 0 0 0 0
60 66 72 72 66 62 60 62 65 69 68 57 42 30 19 13 10 9 8 8 7 5 4 4 3 1 0 0 0 0 0 0 0 0 0 0 0 0 0 0 0 0 0
64 67 71 71 65 53 48 51 52 55 53 42 31 23 13 6 5 5 7 8 6 4 4 4 3 2 0 0 0 0 0 0 0 0 1 1 1 0 0 0 0 0 0
67 68 69 69 63 52 48 49 45 40 33 22 18 17 11 7 5 4 8 8 5 3 3 3 2 1 0 0 0 0 0 0 0 0 1 2 2 1 0 0 0 0 0
67 67 68 70 68 62 59 57 51 44 33 23 22 24 20 17 12 8 8 7 4 3 2 2 1 0 0 0 0 0 0 0 0 0 1 2 2 2 1 0 1 0 0
63 66 70 76 78 76 72 69 64 58 49 43 42 40 32 26 18 12 9 7 4 3 2 1 0 0 0 0 0 0 0 0 0 0 0 1 1 2 2 2 2 2 2
56 62 71 79 84 84 82 78 72 66 63 60 54 45 35 27 19 15 14 11 7 4 4 3 2 1 1 1 0 0 0 0 0 0 1 1 3 4 5 5 5 5 5
47 54 64 74 82 84 83 80 74 72 72 65 54 42 32 25 21 20 19 17 11 8 9 8 4 3 3 2 0 0 0 0 1 1 2 3 5 6 7 8 9 10 10
40 47 55 62 72 78 78 75 71 71 71 64 56 48 36 28 29 29 25 20 17 15 17 14 8 4 3 2 1 1 2 2 2 2 2 4 5 5 6 9 12 15 16
38 45 50 52 59 66 71 71 68 67 67 66 65 59 48 39 38 38 33 28 26 25 23 18 13 10 8 5 4 5 6 5 4 3 2 3 4 5 8 12 15 17 18
42 47 49 45 47 53 61 66 65 64 67 69 72 69 61 52 47 44 41 36 34 34 31 25 22 21 18 13 9 9 9 8 6 4 2 3 6 9 12 15 17 17 17
46 50 49 43 42 46 52 60 61 59 62 68 72 72 69 62 54 49 47 43 42 44 43 38 34 31 27 21 14 10 10 11 12 8 4 5 10 13 14 16 18 18 16
45 49 49 47 47 49 52 56 57 55 57 62 65 67 68 65 59 56 56 56 56 57 53 48 43 37 32 26 19 14 11 13 15 12 8 9 11 13 13 12 14 15 15
35 40 45 48 52 54 55 55 54 51 49 51 55 57 58 58 60 61 63 65 64 61 55 50 47 42 36 31 25 19 14 15 16 12 10 9 9 9 9 8 9 10 11
24 27 34 41 48 52 54 53 49 44 40 40 42 42 41 43 48 55 58 57 56 54 49 47 45 42 37 31 26 22 19 18 14 9 8 7 6 7 7 6 7 7 7
17 18 24 32 39 45 47 48 43 36 31 29 27 23 22 22 26 33 36 36 38 38 36 34 33 33 30 26 23 21 19 17 13 8 5 4 5 7 8 6 5 4 5
16 15 18 24 31 35 39 40 37 30 23 18 14 12 10 9 8 11 13 15 18 20 19 17 17 18 19 17 15 14 13 12 10 6 4 3 4 6 6 5 3 1 1
16 15 16 20 25 29 32 35 31 24 17 11 8 7 7 5 3 3 4 6 8 10 9 9 8 9 9 9 8 7 8 8 7 5 4 3 4 4 4 2 1 0 0

GEFSSE_con_probscp_078.txt.gz
Probability
52 50 48 38 19 6 2 1 0 0 0 0 0 0 0 0 0 0 0 0 0 0 0 0 0 0 0 0 0 0 0 0 0 0 0 0 0 0 0 0 0 0 0
70 64 59 48 28 11 5 3 1 0 0 0 0 0 0 0 0 0 0 0 0 0 0 0 0 0 0 0 0 0 0 0 0 0 0 0 0 0 0 0 0 0 0
82 75 69 62 44 24 13 8 4 1 1 0 0 0 0 0 0 0 0 0 0 0 0 0 0 0 0 0 0 0 0 0 0 0 0 0 0 0 0 0 0 0 0
75 70 69 69 57 39 24 15 8 5 2 2 1 1 0 0 0 0 0 0 0 0 0 0 0 0 0 0 0 0 0 0 0 0 0 0 0 0 0 0 0 0 0
61 61 70 73 64 51 37 26 18 11 5 4 3 2 1 1 1 1 0 0 0 0 0 0 0 0 0 0 0 0 0 0 0 0 0 0 0 0 0 0 0 0 0
58 64 72 75 69 61 51 40 31 21 11 7 6 4 3 4 3 2 1 0 0 0 0 0 0 0 0 0 0 0 0 0 0 0 0 0 0 0 0 0 0 0 0
66 70 73 74 73 69 62 54 46 35 24 17 13 11 10 9 7 3 1 0 0 0 0 0 0 0 0 0 0 0 0 0 0 0 0 0 0 0 0 0 0 0 0
74 76 75 72 71 69 67 65 62 55 44 33 25 20 18 14 9 4 2 1 0 0 0 0 0 0 0 0 0 0 0 0 0 0 0 0 0 0 0 0 0 0 0
77 80 77 71 67 63 64 67 70 69 61 50 38 29 22 15 8 4 3 2 1 0 0 0 0 0 0 0 0 0 0 0 0 0 0 1 1 1 0 0 0 0 0
80 81 76 70 64 59 59 64 71 73 68 57 42 30 20 10 4 2 3 4 2 1 0 0 0 0 0 0 0 0 0 0 0 0 0 2 4 3 1 0 0 0 0
82 78 70 64 60 55 55 64 71 68 60 48 36 25 14 5 1 1 4 6 4 1 0 0 0 0 0 0 0 0 0 0 0 0 2 7 9 6 3 1 0 0 0
85 78 64 54 52 49 54 68 70 59 45 34 26 20 11 5 3 5 10 12 6 1 1 1 1 0 0 0 0 0 0 0 0 0 6 14 14 8 4 2 0 0 0
89 80 63 51 46 46 57 71 67 54 41 28 24 22 15 10 10 16 22 18 8 3 2 2 2 1 0 0 0 0 0 0 0 1 8 18 18 10 5 4 3 2 1
90 83 70 60 54 53 65 72 61 50 42 33 32 31 24 18 17 24 29 20 8 3 3 3 2 1 0 0 0 0 1 1 1 3 10 18 18 13 8 7 8 6 4
90 86 79 74 70 70 75 73 60 51 46 44 46 43 33 26 25 30 32 23 11 4 3 2 3 3 2 1 0 1 2 3 4 5 9 14 17 17 13 11 11 10 9
86 85 84 83 82 82 81 77 68 62 59 58 60 55 42 36 40 45 42 30 16 9 9 8 7 9 7 4 3 2 4 5 8 8 8 9 12 15 16 14 12 12 13
82 81 82 82 82 82 81 79 74 70 69 70 72 67 54 48 55 60 54 40 24 19 23 23 19 18 15 11 9 8 8 10 11 12 11 9 9 11 14 15 14 14 16
80 78 77 75 76 78 78 75 71 67 67 71 74 72 62 56 60 63 58 48 37 32 35 34 29 25 22 19 17 14 13 13 13 13 14 15 15 13 13 15 17 17 17
78 76 73 70 71 73 73 68 63 58 58 60 63 64 59 55 56 56 55 53 48 43 41 36 33 31 28 23 18 16 18 18 16 14 14 17 20 17 14 15 17 16 16
75 74 72 70 70 69 66 60 52 46 44 45 47 50 50 47 47 47 49 51 52 51 47 42 40 39 34 28 18 16 21 22 20 17 15 14 15 15 14 13 13 13 13
67 68 67 66 66 65 61 54 44 36 33 33 32 35 38 38 38 38 41 46 52 56 55 51 49 45 40 36 28 22 20 19 17 16 15 13 11 11 12 11 10 11 12
52 54 57 58 57 56 55 52 43 34 28 25 22 22 26 30 33 35 39 44 50 55 56 55 53 47 43 42 37 25 16 13 12 11 12 12 11 10 10 9 8 8 9
37 40 44 48 48 47 49 48 41 31 25 20 16 15 19 25 29 33 37 38 41 46 47 47 48 46 43 41 36 25 16 12 10 7 8 9 9 9 7 5 5 5 5
26 28 33 38 40 40 42 41 35 28 22 16 13 13 16 21 25 27 28 27 28 31 32 32 35 39 38 35 31 26 20 14 9 6 5 5 6 5 4 3 2 2 2
16 20 25 30 32 34 35 33 27 23 17 11 10 10 12 14 18 18 17 16 17 18 19 20 23 26 27 25 23 21 18 13 7 4 2 1 2 2 1 1 0 0 0
11 15 21 25 27 30 32 28 22 17 12 8 7 8 8 9 11 12 12 11 11 12 14 15 15 16 17 16 14 12 11 8 5 3 1 0 0 0 0 0 0 0 0

GEFSSE_con_probscp_084.txt.gz
Probability
1 2 3 2 1 1 2 3 3 3 4 6 7 10 11 12 12 10 6 3 1 0 0 0 0 0 0 0 0 0 0 0 0 0 0 0 0 0 0 0 0 0 0
5 6 7 7 4 2 2 2 1 2 5 6 6 7 7 8 9 8 5 2 1 0 0 0 0 0 0 0 0 0 0 0 0 0 0 0 0 0 0 0 0 0 0
13 13 14 15 11 6 2 0 0 1 4 5 3 2 2 4 5 6 3 1 0 0 0 0 0 0 0 0 0 0 0 0 0 0 0 0 0 0 0 0 0 0 0
21 20 21 23 20 12 5 2 1 1 2 3 1 0 0 2 4 5 3 1 0 0 0 0 0 0 0 0 0 0 0 0 0 0 0 0 0 0 0 0 0 0 0
28 26 27 30 27 19 12 7 4 2 2 1 1 0 0 2 4 5 3 2 0 0 0 0 0 0 0 0 0 0 0 0 0 0 0 0 0 0 0 0 0 0 0
31 31 34 36 32 26 20 13 9 5 3 1 0 0 0 1 3 3 1 1 0 0 0 0 0 0 0 0 0 0 0 0 0 0 0 0 0 0 0 0 0 0 0
36 39 44 45 39 32 25 19 14 10 5 2 0 1 1 0 1 1 0 0 0 0 0 0 0 0 0 0 0 0 0 0 0 0 0 0 0 0 0 0 0 0 0
51 52 55 54 48 39 31 24 19 13 8 5 2 2 2 1 0 0 0 0 0 0 0 0 0 0 0 0 0 0 0 0 0 0 0 0 0 0 0 0 0 0 0
66 66 64 58 51 45 37 29 22 15 12 11 7 4 2 1 0 0 0 0 0 0 0 0 0 0 0 0 0 0 0 0 0 0 0 0 0 0 0 0 0 0 0
75 74 71 65 58 52 45 36 30 24 20 18 13 7 3 1 0 0 0 0 0 0 0 0 0 0 0 0 0 0 0 0 0 0 0 0 0 0 0 0 0 0 0
79 79 79 75 70 65 58 51 45 39 32 26 20 13 8 3 0 0 0 0 0 0 0 0 0 0 0 0 0 0 0 0 0 0 0 0 0 0 1 1 1 0 0
80 80 81 80 77 74 72 69 64 57 49 39 29 22 15 8 2 1 0 0 0 0 0 0 0 0 0 0 0 0 0 0 0 0 0 0 1 1 2 3 2 1 0
81 80 79 78 76 75 77 80 78 72 63 52 40 30 22 13 6 3 1 1 0 0 0 0 0 0 0 0 0 0 0 0 0 0 0 0 2 4 5 5 4 1 1
78 77 75 72 72 73 76 80 81 77 70 61 48 36 25 15 7 3 2 2 1 0 0 0 0 0 0 0 0 0 0 0 0 0 1 2 3 6 8 7 4 2 1
67 67 66 65 66 69 71 74 74 71 67 60 51 38 27 16 8 4 4 4 4 2 1 0 0 0 0 0 0 0 0 0 0 0 1 4 6 9 11 8 5 3 3
56 55 56 58 60 61 63 65 65 62 57 52 44 33 23 14 9 7 7 7 5 4 2 1 0 0 0 0 0 0 0 0 0 0 1 4 7 11 13 10 7 7 6
52 50 50 52 54 55 56 58 58 53 45 39 33 27 18 11 9 8 9 7 6 5 3 1 0 0 0 0 0 0 0 0 0 0 0 1 5 10 11 10 8 8 8
47 46 46 45 46 49 51 52 49 42 34 29 26 23 18 12 8 8 8 6 6 5 2 0 0 0 0 0 0 0 0 0 0 0 0 0 2 4 5 5 6 7 7
41 41 39 37 38 41 46 47 42 34 27 23 21 21 18 14 10 8 7 6 5 4 2 1 0 0 0 0 0 0 0 0 0 0 0 0 0 0 0 1 3 4 4
37 35 32 30 31 33 38 41 37 30 23 18 17 16 15 12 9 7 6 6 5 3 2 1 0 0 0 0 0 0 0 0 0 0 0 0 0 0 0 0 1 1 1
29 28 25 24 24 26 30 32 30 24 18 14 12 11 10 8 6 5 5 6 5 3 2 1 0 0 0 0 0 0 0 0 0 0 0 0 0 0 0 0 0 0 0
17 18 19 19 18 20 23 24 21 17 13 10 8 8 7 5 4 4 4 4 3 2 1 0 0 0 0 0 0 0 0 0 0 0 0 0 0 0 0 0 0 0 0
8 10 12 13 14 15 18 19 17 14 10 8 7 6 6 5 4 3 3 2 1 1 1 0 0 0 0 0 0 0 0 0 0 0 0 0 0 0 0 0 0 0 0
5 6 7 8 9 12 16 16 15 13 9 6 5 4 5 4 2 2 1 1 1 1 0 0 0 0 0 0 0 0 0 0 0 0 0 0 0 0 0 0 0 0 0
4 4 4 4 5 9 12 13 11 9 7 5 3 2 2 2 2 1 0 0 0 0 0 0 0 0 0 0 0 0 0 0 0 0 0 0 0 0 0 0 0 0 0
3 3 3 3 4 6 9 9 8 7 5 4 3 1 0 1 2 1 0 0 0 0 0 0 0 0 0 0 0 0 0 0 0 0 0 0 0 0 0 0 0 0 0

GEFSSE_con_probscp_090.txt.gz
Probability
3 6 6 4 2 2 4 10 17 21 21 17 10 6 4 4 2 1 0 0 0 0 0 0 0 0 0 0 0 0 0 0 0 0 0 0 0 0 0 0 0 0 0
6 9 10 6 3 3 5 11 18 23 24 21 15 10 8 5 3 1 0 0 0 0 0 0 0 0 0 0 0 0 0 0 0 0 0 0 0 0 0 0 0 0 0
12 14 15 11 7 6 8 13 19 23 25 24 22 18 13 9 5 1 0 0 0 0 0 0 0 0 0 0 0 0 0 0 0 0 0 0 0 0 0 0 0 0 0
17 18 19 18 13 10 12 16 19 22 23 25 27 24 19 13 8 3 1 0 0 0 0 0 0 0 0 0 0 0 0 0 0 0 0 0 0 0 0 0 0 0 0
19 20 24 26 22 16 15 16 17 19 22 26 29 29 24 19 13 6 2 0 0 0 0 0 0 0 0 0 0 0 0 0 0 0 0 0 0 0 0 0 0 0 0
24 24 30 35 31 25 21 18 17 18 21 26 28 29 26 22 17 10 3 0 0 0 0 0 0 0 0 0 0 0 0 0 0 0 0 0 0 0 0 0 0 0 0
28 28 34 41 40 36 31 26 23 21 21 23 23 22 21 21 19 13 5 1 0 0 0 0 0 0 0 0 0 0 0 0 0 0 0 0 0 0 0 0 0 0 0
33 32 37 44 46 44 41 37 31 27 25 22 19 17 16 16 17 14 9 3 0 0 0 0 0 0 0 0 0 0 0 0 0 0 0 0 0 0 0 0 0 0 0
38 41 44 47 47 46 46 44 38 33 29 25 20 16 13 12 12 13 10 5 1 0 0 0 0 0 0 0 0 0 0 0 0 0 0 0 0 0 0 0 0 0 0
40 46 51 52 49 48 50 50 46 41 36 30 24 19 14 10 9 10 9 5 1 0 0 0 0 0 0 0 0 0 0 0 0 0 0 0 0 0 0 0 0 0 0
35 42 50 55 56 57 58 59 59 55 47 39 31 25 19 14 11 11 8 4 1 0 0 0 0 0 0 0 0 0 0 0 0 0 0 0 0 0 0 0 0 0 0
31 35 43 52 60 65 68 71 72 68 60 51 43 37 30 23 18 15 11 5 2 1 1 1 1 0 0 0 0 0 0 0 0 0 0 0 0 0 0 0 0 0 0
31 33 38 45 55 64 70 73 74 73 70 65 59 52 44 34 26 20 14 8 4 3 3 4 4 2 0 0 0 0 0 0 0 0 0 0 0 0 0 0 0 0 1
38 38 39 42 50 58 63 67 68 69 72 72 68 65 58 47 34 24 16 10 7 6 5 6 6 4 1 0 0 0 0 0 0 0 0 0 0 0 0 0 0 1 2
45 45 42 44 49 55 58 61 63 66 69 70 68 67 64 54 41 29 20 13 9 8 7 6 6 5 2 0 0 0 0 0 0 0 0 1 1 0 0 1 1 2 2
45 46 45 45 50 53 55 58 61 63 64 65 64 63 61 53 41 32 26 19 12 9 7 6 5 3 1 1 0 0 0 0 0 0 1 2 3 2 1 2 3 4 3
40 42 43 44 47 49 50 54 58 60 59 58 57 57 55 49 39 32 28 22 17 14 11 7 5 2 1 1 0 0 0 0 0 0 1 3 4 4 3 3 5 5 4
35 37 40 43 44 45 44 46 49 51 51 49 47 47 48 44 36 30 27 23 20 18 14 9 5 2 1 1 0 0 0 0 0 0 1 2 3 3 2 2 3 3 3
30 33 36 39 39 38 36 36 38 41 41 39 37 36 37 36 32 28 26 23 20 18 15 9 4 2 2 1 0 0 0 0 0 0 0 0 1 1 0 1 1 1 2
23 26 29 31 31 29 28 29 32 33 33 32 28 27 28 28 28 27 24 21 18 16 13 8 2 1 2 1 0 0 0 0 0 0 0 0 0 0 0 0 0 1 2
15 17 21 23 22 21 23 25 28 28 29 27 23 21 21 20 21 22 19 15 13 11 9 5 1 0 1 1 0 0 0 0 0 0 0 0 0 0 0 0 0 1 2
8 9 13 16 16 16 18 20 21 21 21 19 17 16 14 14 14 14 12 10 8 8 6 4 1 0 0 0 0 0 0 0 0 0 0 0 0 0 0 0 0 0 1
3 4 6 9 11 12 13 14 15 15 14 12 11 11 9 9 9 9 8 7 6 7 6 3 1 0 0 0 0 0 0 0 0 0 0 0 0 0 0 0 0 0 0
2 1 2 3 6 8 10 11 12 13 11 8 6 6 6 6 7 7 7 6 5 5 3 1 0 0 0 0 0 0 0 0 0 0 0 0 0 0 0 0 0 0 0
2 2 1 1 3 6 7 8 10 10 9 6 3 3 3 4 4 5 5 4 3 2 1 0 0 0 0 0 0 0 0 0 0 0 0 0 0 0 0 0 0 0 0
3 3 2 1 3 4 5 6 6 7 7 5 2 1 1 1 2 2 2 2 1 1 0 0 0 0 0 0 0 0 0 0 0 0 0 0 0 0 0 0 0 0 0

GEFSSE_con_probscp_096.txt.gz
Probability
4 6 7 5 3 1 2 4 4 2 2 1 1 0 1 2 2 1 0 0 0 0 0 0 0 0 0 0 0 0 0 0 0 0 0 0 0 0 0 0 0 0 0
8 10 11 9 6 3 4 7 8 7 6 5 4 3 3 2 1 0 0 0 0 0 0 0 0 0 0 0 0 0 0 0 0 0 0 0 0 0 0 0 0 0 0
14 14 14 15 13 9 9 13 15 16 15 12 10 8 5 3 1 0 0 0 0 0 0 0 0 0 0 0 0 0 0 0 0 0 0 0 0 0 0 0 0 0 0
15 15 16 19 22 20 20 22 25 28 29 25 19 13 8 5 3 2 1 0 0 0 0 0 0 0 0 0 0 0 0 0 0 0 0 0 0 0 0 0 0 0 0
12 13 17 22 27 30 31 34 40 44 45 42 35 25 18 13 9 6 4 2 1 0 0 0 0 0 0 0 0 0 0 0 0 0 0 0 0 0 0 0 0 0 0
7 10 16 21 26 31 36 45 52 56 58 57 51 43 36 29 19 12 7 4 2 1 0 0 0 0 0 0 0 0 0 0 0 0 0 0 0 0 0 0 0 0 0
5 9 16 21 22 26 36 47 55 61 64 62 57 53 49 44 35 24 16 10 6 3 1 1 1 0 0 0 0 0 0 0 0 0 0 0 0 0 0 0 0 0 0
5 11 18 18 16 20 29 41 51 59 62 62 59 56 54 52 45 35 27 19 12 7 5 3 2 1 0 0 0 0 0 0 0 0 0 0 0 0 0 0 0 0 0
6 12 16 13 10 13 20 30 41 51 58 63 62 58 54 51 45 37 31 25 18 13 9 7 4 3 1 0 0 0 0 0 0 0 0 0 0 0 0 0 0 0 0
11 13 15 11 8 8 12 18 27 39 52 58 58 55 48 40 32 27 26 27 23 16 12 9 6 5 2 0 0 0 0 0 0 0 0 1 1 1 0 0 0 0 0
18 18 17 16 13 10 11 15 18 26 37 41 42 43 37 26 18 18 26 33 27 17 13 10 8 6 3 1 0 0 0 0 0 0 0 2 2 1 0 0 0 0 0
23 22 20 19 18 16 20 24 22 24 29 29 31 34 30 23 17 20 34 38 28 17 13 12 10 6 2 0 0 0 0 0 0 0 1 3 2 1 0 0 0 0 0
28 26 23 22 21 23 31 39 39 39 42 40 40 43 43 39 32 33 40 40 28 19 15 13 10 4 1 0 0 0 0 0 0 0 2 3 2 0 0 0 0 0 0
32 31 30 30 30 33 41 50 52 55 60 60 59 61 61 59 51 46 47 43 32 23 20 18 12 7 3 1 0 0 0 0 0 1 2 2 2 1 0 0 0 0 0
35 35 36 39 42 46 52 55 56 61 66 68 69 70 71 69 64 57 56 54 42 33 30 25 19 15 10 5 2 1 1 1 1 1 3 5 5 4 3 2 1 1 1
38 38 41 44 48 53 57 56 57 60 64 66 68 71 72 72 69 64 64 63 55 47 41 35 30 26 23 16 9 6 4 4 3 3 5 8 9 7 6 6 5 4 3
36 38 39 41 45 51 54 55 56 58 60 61 65 69 71 71 71 68 67 66 64 59 55 50 46 43 39 31 22 16 11 9 7 7 8 10 10 8 8 8 9 7 6
31 32 33 35 40 47 51 54 55 56 58 60 63 66 66 67 69 71 70 68 68 68 67 64 62 61 54 43 33 26 20 15 13 11 10 11 11 10 10 11 11 9 7
27 29 29 30 36 43 49 53 55 57 59 61 61 59 59 60 64 68 70 71 70 71 72 70 69 69 62 49 38 31 25 21 17 14 12 11 13 14 14 14 12 10 8
27 28 28 29 34 40 47 52 54 56 60 59 55 51 50 52 56 58 62 66 68 69 71 71 70 70 64 50 37 28 22 17 17 16 13 10 11 14 15 14 13 9 7
23 23 24 26 31 37 44 50 51 52 56 55 51 46 44 45 48 49 50 55 59 62 66 69 68 66 58 46 33 22 14 10 11 12 10 7 8 10 11 10 9 6 4
17 17 18 21 25 32 38 41 42 44 47 47 44 42 41 40 40 41 41 45 50 55 59 62 62 57 47 37 29 20 12 7 7 7 7 5 4 5 4 4 4 3 2
13 13 15 17 21 25 29 30 31 35 36 33 32 34 35 35 33 33 34 37 43 49 51 52 51 46 37 29 25 22 16 11 7 5 4 3 2 2 1 0 1 1 1
12 11 12 16 18 19 22 23 24 26 26 24 24 26 29 29 28 27 28 32 38 41 43 44 40 34 28 23 22 21 19 15 8 3 3 2 1 1 1 0 0 0 0
10 10 11 13 14 15 16 18 19 20 21 22 23 23 25 26 25 24 25 28 32 34 35 35 32 26 22 19 20 19 17 13 7 3 1 1 0 1 1 0 0 0 0
10 10 10 11 12 13 14 14 15 17 18 20 22 22 24 27 25 23 24 26 28 30 31 29 26 23 19 18 18 17 14 9 6 3 1 0 0 0 0 0 0 0 0

GEFSSE_con_probscp_102.txt.gz
Probability
15 16 17 11 4 1 0 0 0 0 0 0 0 0 0 0 0 0 0 0 0 0 0 0 0 0 0 0 0 0 0 0 1 2 2 1 0 0 0 0 0 0 0
20 20 19 13 5 1 0 0 0 0 0 0 0 0 0 0 0 0 0 0 0 0 0 0 0 0 0 0 0 0 0 0 0 1 1 0 0 0 0 0 0 0 0
24 21 19 15 6 1 0 0 0 0 0 0 0 0 0 0 0 0 0 0 0 0 0 0 0 0 0 0 0 0 0 0 0 0 0 0 0 0 0 0 0 0 0
19 18 18 16 8 2 0 0 0 0 0 0 0 0 0 0 0 0 0 0 0 0 0 0 0 0 0 0 0 0 0 0 0 0 0 0 0 0 0 0 0 0 0
14 18 21 19 12 5 2 1 0 0 0 0 0 0 0 0 0 0 0 0 0 0 0 0 0 0 0 0 0 0 0 0 0 0 0 0 0 0 0 0 0 0 0
20 23 25 23 16 10 5 3 1 0 1 1 1 0 0 0 0 0 0 0 0 0 0 0 0 0 0 0 0 0 0 0 0 0 0 0 0 0 0 0 0 0 0
28 26 26 25 21 15 10 6 4 2 3 4 3 2 2 1 1 0 0 0 0 0 0 0 0 0 0 0 0 0 0 0 0 0 0 0 0 0 0 0 0 0 0
32 27 23 23 23 19 14 11 8 7 8 10 10 9 8 6 3 1 1 1 0 0 1 1 1 0 0 0 0 0 0 0 0 0 0 0 0 0 0 0 0 0 0
33 26 19 18 19 18 16 15 13 14 16 18 18 16 14 11 6 3 4 4 3 2 1 1 1 0 0 0 0 0 0 0 0 0 0 0 0 0 0 0 0 0 0
35 25 15 13 14 14 15 16 17 19 22 23 22 19 15 10 6 4 8 11 9 5 3 1 0 0 0 0 0 0 0 0 0 0 0 0 0 0 0 0 0 0 0
34 24 14 13 12 11 14 17 18 19 20 19 18 15 10 5 3 4 13 22 20 11 5 2 1 0 0 0 0 0 0 0 0 0 1 2 2 1 0 0 0 0 0
35 29 22 20 17 16 20 22 17 15 14 11 11 11 8 3 2 10 26 38 33 19 9 5 3 1 0 0 0 0 0 0 0 1 5 7 6 3 1 1 0 0 0
36 34 33 32 29 29 33 29 20 19 20 17 17 18 13 6 7 22 43 50 41 25 13 10 6 2 0 0 1 1 1 0 0 3 9 13 11 7 4 2 1 0 0
39 37 36 38 38 41 46 39 28 30 36 37 39 41 30 16 15 32 51 55 42 26 19 17 12 5 2 1 1 2 2 1 2 5 10 14 15 11 7 5 3 1 0
45 41 36 38 43 50 54 49 40 42 50 55 61 62 51 36 31 40 55 57 43 30 27 25 18 13 10 7 5 6 6 5 6 8 11 15 17 14 11 10 8 5 2
49 46 40 39 47 56 57 54 51 53 59 65 71 73 65 58 55 57 63 63 51 40 37 34 27 26 25 21 19 18 17 15 17 19 18 19 19 18 17 16 14 10 7
45 47 43 40 47 55 56 57 59 62 66 70 75 77 74 72 74 72 71 70 61 53 52 49 42 41 41 39 37 35 32 31 32 34 32 26 20 19 21 21 19 16 15
39 43 43 41 48 55 57 60 63 67 70 74 77 79 78 75 74 75 75 73 67 65 66 62 56 53 51 48 44 42 41 42 42 43 41 35 25 20 21 24 23 20 19
36 39 40 43 51 58 61 62 64 69 73 75 76 78 76 71 67 68 71 70 68 69 69 66 63 59 53 46 39 35 38 42 43 41 40 37 31 24 24 26 25 21 19
31 34 38 43 51 58 62 62 63 68 72 74 74 73 71 66 63 63 64 65 66 67 64 61 60 56 49 41 32 27 29 34 35 33 32 32 29 27 26 25 23 20 19
26 29 33 38 45 52 58 60 62 64 65 67 69 67 63 60 59 59 59 60 62 60 56 52 50 47 43 36 29 24 23 24 24 24 25 24 22 21 20 19 17 14 14
22 24 26 30 37 45 52 57 60 61 60 60 62 61 56 51 50 50 52 54 55 52 48 46 44 42 39 34 29 25 19 16 14 15 17 17 14 12 11 11 10 7 6
16 18 20 24 31 39 48 54 57 58 56 56 56 54 49 43 40 40 43 45 46 44 43 44 43 42 40 36 32 28 21 15 10 7 8 8 6 4 4 5 6 4 3
12 14 17 22 25 32 39 45 48 49 48 48 47 44 40 36 34 34 35 37 38 39 39 40 40 40 39 36 34 30 25 19 10 4 2 1 1 1 1 2 3 3 3
10 12 15 17 19 22 26 30 32 34 34 34 32 31 31 31 30 29 28 29 31 33 35 35 35 35 35 33 32 30 25 20 11 4 1 0 0 0 0 0 1 1 1
9 11 12 13 15 16 18 21 21 22 24 24 22 23 26 27 27 26 25 25 27 30 33 33 33 32 31 30 29 27 24 17 11 5 1 0 0 0 0 0 0 0 0

GEFSSE_con_probscp_108.txt.gz
Probability
2 4 8 8 7 5 3 1 1 0 0 0 0 1 4 4 4 3 1 1 1 1 0 0 0 0 0 0 0 0 0 0 0 0 0 0 0 0 0 0 0 0 0
7 9 12 12 10 7 5 3 2 1 0 0 0 1 2 2 2 1 0 0 0 0 0 0 0 0 0 0 0 0 0 0 0 0 0 0 0 0 0 0 0 0 0
20 19 19 19 16 11 7 5 3 1 0 0 0 0 0 0 0 0 0 0 0 0 0 0 0 0 0 0 0 0 0 0 0 0 0 0 0 0 0 0 0 0 0
35 31 28 28 23 16 10 6 3 1 0 1 1 1 0 0 0 0 0 0 0 0 0 0 0 0 0 0 0 0 0 0 0 0 0 0 0 0 0 0 0 0 0
43 39 38 38 31 22 13 7 3 1 0 1 2 1 0 0 0 0 0 0 0 0 0 0 0 0 0 0 0 0 0 0 0 0 0 0 0 0 0 0 0 0 0
46 43 43 43 37 28 19 12 7 3 2 1 1 0 0 0 0 0 0 0 0 0 0 0 0 0 0 0 0 0 0 0 0 0 0 0 0 0 0 0 0 0 0
49 46 44 43 39 32 25 18 12 9 5 1 0 0 0 0 0 0 0 0 0 0 0 0 0 0 0 0 0 0 0 0 0 0 0 0 0 0 0 0 0 0 0
50 47 44 41 38 35 30 24 17 13 9 4 1 0 0 0 0 0 0 0 0 0 0 0 0 0 0 0 0 0 0 0 0 0 0 0 0 0 0 0 0 0 0
45 44 42 38 36 36 33 27 21 16 12 7 3 1 1 0 0 0 0 0 0 0 0 0 0 0 0 0 0 0 0 0 0 0 0 0 0 0 0 0 0 0 0
37 36 33 31 31 33 33 29 23 18 13 9 5 3 1 0 0 0 0 0 0 0 0 0 0 0 0 0 0 0 0 0 0 0 0 0 0 0 0 0 0 0 0
29 26 21 21 25 28 29 27 22 16 12 9 6 3 2 1 0 0 1 1 1 1 0 0 1 1 1 0 0 0 0 0 0 0 0 0 0 0 0 0 0 0 0
22 18 14 15 19 22 23 22 19 15 12 10 7 4 3 1 0 1 2 2 2 2 1 1 2 3 2 1 0 0 0 0 0 0 0 0 1 2 2 1 0 0 0
19 16 14 14 15 15 17 18 16 14 14 13 10 7 5 2 1 1 2 3 3 3 3 3 4 5 4 2 1 0 0 0 0 0 0 1 3 5 6 4 2 1 1
20 17 15 14 13 11 12 14 13 11 12 12 11 9 7 4 2 1 2 3 5 6 6 5 5 5 5 4 1 0 0 0 0 0 0 2 5 8 9 8 6 4 3
19 16 14 12 10 8 9 10 9 7 7 7 8 10 9 7 4 2 2 3 5 7 7 6 4 4 4 3 1 1 1 1 0 0 2 4 7 10 11 11 9 6 6
13 12 11 9 7 5 6 7 6 5 6 6 7 10 12 10 7 6 5 5 5 5 6 5 4 3 3 2 1 1 2 2 1 1 3 8 10 10 11 12 11 8 7
9 8 7 6 4 4 5 6 6 7 9 11 10 12 14 14 11 12 11 8 6 6 6 4 3 2 1 1 0 0 1 1 2 3 5 8 9 9 10 13 13 10 8
6 5 3 3 3 3 4 5 7 9 12 15 16 17 18 18 17 18 16 12 9 9 9 7 3 1 1 0 0 0 0 0 1 3 5 6 6 6 8 11 12 10 9
3 2 1 1 2 3 4 6 9 12 15 18 20 23 24 23 23 23 20 17 17 16 15 12 7 3 2 1 1 0 0 0 0 1 3 3 2 3 5 7 8 9 10
1 1 0 0 1 3 5 8 12 17 18 19 21 23 24 25 26 26 25 24 24 22 18 14 10 6 4 3 2 1 0 0 0 0 1 1 0 1 2 4 5 7 9
1 1 1 1 1 3 5 8 14 17 16 14 15 17 18 21 24 26 26 25 24 22 18 14 10 7 6 4 2 0 0 0 0 0 0 0 0 0 1 2 3 3 4
2 2 2 2 2 2 3 6 11 13 11 9 9 10 11 14 17 20 22 22 21 20 18 14 11 8 6 3 1 0 0 0 0 0 0 0 0 0 0 1 1 1 0
4 4 4 4 3 3 3 4 8 10 9 7 6 6 6 8 10 12 15 17 19 18 16 14 13 10 7 4 1 0 0 0 0 0 1 1 1 0 0 0 0 0 0
6 6 6 5 5 5 5 5 7 9 8 6 6 5 5 4 6 8 10 12 16 16 13 12 12 10 8 6 3 1 0 0 0 0 1 2 2 1 0 0 0 0 0
6 6 6 6 6 6 6 5 6 6 6 6 6 7 6 6 6 8 8 10 12 12 10 10 11 10 8 8 6 2 0 0 0 0 0 1 1 1 0 0 0 0 0
4 4 4 4 4 4 4 4 3 4 4 5 6 7 8 8 7 7 8 9 10 9 9 10 11 11 8 7 6 4 1 0 0 0 0 0 1 0 0 0 0 0 0

GEFSSE_con_probscp_114.txt.gz
Probability
2 3 3 2 2 6 13 17 20 24 21 15 10 5 2 0 0 0 0 0 0 0 0 0 0 0 0 0 0 0 0 0 0 0 0 0 0 0 0 0 0 0 0
6 7 7 6 5 8 12 15 18 20 19 15 11 8 4 1 0 0 0 0 0 0 0 0 0 0 0 0 0 0 0 0 0 0 0 0 0 0 0 0 0 0 0
11 10 9 10 10 11 13 13 13 14 16 16 14 11 7 2 0 0 0 0 0 0 0 0 0 0 0 0 0 0 0 0 0 0 0 0 0 0 0 0 0 0 0
17 13 11 12 15 17 16 14 12 12 15 17 16 13 9 5 2 1 0 0 0 0 0 0 0 0 0 0 0 0 0 0 0 0 0 0 0 0 0 0 0 0 0
24 19 15 16 18 21 20 17 16 15 16 18 16 12 10 6 3 2 1 1 0 0 0 0 0 0 0 0 0 0 0 0 0 0 0 0 0 0 0 0 0 0 0
34 26 21 20 22 24 23 20 19 18 17 17 14 11 9 6 3 3 3 2 1 0 0 0 0 0 0 0 0 0 0 0 0 0 0 0 0 0 0 0 0 0 0
44 37 29 28 28 27 24 21 20 19 18 17 14 11 9 6 4 3 4 4 2 1 0 0 0 0 0 0 0 0 0 0 0 0 0 0 0 0 0 0 0 0 0
49 47 42 37 35 32 27 23 21 20 20 18 15 12 10 8 5 4 5 5 4 2 1 0 0 1 0 0 0 0 0 0 0 0 0 0 0 0 0 0 0 0 0
48 50 51 47 43 38 33 29 24 22 22 20 17 13 11 9 7 6 7 6 5 4 2 1 0 0 0 0 0 0 0 0 0 0 0 0 0 0 0 0 0 0 0
44 47 52 52 48 41 35 32 27 23 22 21 16 12 9 8 7 7 7 6 6 5 3 1 1 1 0 0 0 0 0 0 0 0 0 0 0 0 0 0 0 0 0
41 43 47 48 45 39 35 33 27 21 20 20 15 10 8 7 6 7 6 6 6 4 3 3 2 2 1 0 0 0 0 0 0 0 0 0 0 1 1 0 0 0 0
36 36 39 41 40 38 37 34 26 19 18 17 14 10 8 6 5 6 6 6 6 4 3 3 3 3 2 1 0 0 0 0 0 0 0 0 1 2 1 0 0 0 0
28 28 29 32 34 35 35 32 25 17 14 13 12 10 8 7 7 7 7 6 5 5 4 4 4 4 3 1 0 0 0 0 0 0 0 0 1 2 2 2 1 2 1
19 19 20 22 24 26 28 28 23 16 12 10 10 10 10 10 10 9 8 6 5 5 4 4 5 5 3 2 1 0 0 0 1 1 0 0 1 2 4 4 4 3 3
9 11 12 12 14 17 20 22 20 16 13 11 10 12 12 12 10 9 8 6 4 4 3 3 5 5 4 3 2 1 1 1 2 2 1 0 1 3 6 7 5 4 5
2 4 5 6 8 12 15 16 16 15 14 12 11 12 12 11 10 9 8 7 5 4 3 3 4 4 4 3 3 3 2 2 2 2 1 0 1 4 9 10 7 4 4
2 2 2 3 5 9 11 11 12 13 11 10 9 10 11 11 10 9 8 8 7 6 6 5 4 3 2 1 2 3 2 1 1 2 1 0 0 4 10 12 9 5 4
3 2 1 1 2 5 7 7 8 9 7 6 6 7 9 11 11 10 9 9 9 9 8 8 7 4 1 0 1 1 0 0 1 1 1 0 0 2 8 10 8 5 4
1 1 0 0 0 1 2 3 4 5 4 3 3 4 5 8 10 10 10 10 10 10 10 10 9 6 2 1 1 0 0 0 0 0 0 0 0 2 5 6 5 4 5
0 0 0 0 0 0 1 2 3 3 3 2 2 2 2 4 7 8 9 10 10 10 11 11 9 6 3 2 1 0 0 0 0 0 0 0 1 3 4 3 3 4 5
0 0 0 0 0 1 2 2 2 3 3 2 2 2 2 2 3 5 5 6 7 9 11 10 8 5 2 1 1 0 0 0 0 0 0 0 1 3 3 3 3 4 5
0 0 0 0 0 0 1 1 1 1 2 2 2 2 2 2 1 2 2 2 5 8 10 9 7 4 2 1 1 0 0 0 0 0 0 0 1 2 3 3 3 3 3
0 0 0 0 0 0 0 0 0 0 0 0 0 0 1 1 0 1 1 1 2 6 8 8 7 6 4 2 1 0 0 0 0 0 0 0 1 2 2 2 2 1 1
0 0 0 0 0 0 0 0 0 0 0 0 0 0 0 0 0 0 1 1 1 3 5 5 5 5 5 3 2 1 1 0 0 0 0 0 1 1 1 2 2 0 0
0 0 0 0 0 0 0 0 0 0 0 0 0 0 0 0 0 0 1 2 1 2 3 2 2 3 4 3 3 3 3 2 1 1 1 1 0 0 2 3 2 1 0
0 0 0 0 0 0 0 0 0 0 0 0 0 0 0 0 0 0 1 2 1 1 1 0 0 1 3 3 3 4 4 4 3 2 2 2 1 0 1 3 2 1 0

GEFSSE_con_probscp_120.txt.gz
Probability
0 0 0 0 0 0 1 2 1 0 1 2 1 0 0 0 0 0 0 0 0 0 0 0 0 0 0 0 0 0 0 0 0 0 0 0 0 0 0 0 0 0 0
1 1 1 0 0 1 2 4 3 1 2 3 2 1 0 0 0 0 0 0 0 0 0 0 0 0 0 0 0 0 0 0 0 0 0 0 0 0 0 0 0 0 0
2 2 2 1 1 2 5 8 8 6 5 6 5 3 1 0 0 0 0 0 0 0 0 0 0 0 0 0 0 0 0 0 0 0 0 0 0 0 0 0 0 0 0
2 2 2 2 3 4 7 12 15 14 12 12 10 6 4 2 1 0 0 0 0 0 0 0 0 0 0 0 0 0 0 0 0 0 0 0 0 0 0 0 0 0 0
6 5 4 4 5 7 10 16 23 24 22 19 15 10 8 6 3 0 0 0 0 0 0 0 0 0 0 0 0 0 0 0 0 0 0 0 0 0 0 0 0 0 0
13 11 9 8 8 9 11 18 26 30 30 26 20 15 13 11 6 2 1 1 0 0 0 0 0 0 0 0 0 0 0 0 0 0 0 0 0 0 0 0 0 0 0
16 15 13 12 10 9 11 17 24 31 35 32 26 20 17 14 9 5 3 2 1 1 0 0 0 0 0 0 0 0 0 0 0 0 0 0 0 0 0 0 0 0 0
16 15 14 10 8 8 11 16 23 31 36 35 29 23 18 14 10 8 6 4 2 1 0 0 0 0 0 0 0 0 0 0 0 0 0 0 0 0 0 0 0 0 0
18 17 13 10 8 10 12 16 23 29 32 32 29 24 18 13 10 8 7 6 3 1 0 0 0 0 0 0 0 0 0 0 0 0 0 0 0 0 0 0 0 0 0
21 19 15 13 13 14 14 18 22 26 26 25 23 21 17 11 8 6 6 5 3 0 0 0 1 1 1 0 0 0 0 0 0 0 0 0 0 0 0 0 0 0 0
21 19 17 17 17 16 17 20 22 23 21 17 15 14 11 7 5 4 5 5 2 0 0 1 1 1 1 0 0 0 0 0 0 0 0 1 0 0 0 0 0 0 0
19 19 19 18 17 17 20 24 22 19 15 11 9 8 5 4 3 4 7 6 3 1 1 1 1 1 1 0 0 0 0 0 0 0 1 2 1 0 0 0 0 0 0
16 17 19 17 16 19 24 26 24 20 17 13 10 8 6 6 5 5 6 6 4 4 4 3 1 0 0 0 0 0 0 0 0 0 2 4 2 0 0 0 0 0 0
14 16 18 19 20 23 28 30 29 27 25 22 18 12 9 10 9 7 8 7 5 6 7 6 3 1 0 0 0 0 0 0 0 0 2 5 4 2 1 0 0 0 0
15 16 19 22 25 27 32 34 31 30 30 28 23 16 13 15 14 12 13 11 6 6 9 10 7 5 3 1 1 0 0 0 0 1 2 4 4 3 2 1 1 1 0
17 18 19 24 28 31 35 35 31 30 33 29 22 19 19 21 19 16 16 14 10 8 11 13 11 8 5 3 2 1 1 0 2 3 2 3 2 2 3 3 3 2 1
17 17 18 21 26 31 33 30 27 29 32 29 23 21 21 20 20 18 17 16 15 15 17 19 16 12 8 5 5 5 5 4 5 5 5 4 3 3 4 5 6 5 4
14 16 18 18 20 24 26 25 24 26 30 30 27 23 18 17 19 22 20 19 20 21 24 26 25 22 17 12 11 11 10 9 9 10 9 8 7 7 7 8 9 9 9
10 13 15 14 12 14 17 18 21 25 28 30 28 24 21 20 21 23 25 24 22 24 28 30 31 32 28 21 15 12 12 13 14 14 13 11 10 9 9 10 11 13 15
7 8 8 6 6 8 11 13 16 21 24 25 25 23 24 23 21 20 22 22 23 26 29 30 32 34 32 25 15 12 13 14 16 17 16 14 12 8 7 10 14 15 15
5 4 2 1 2 6 9 10 11 15 18 20 21 20 20 20 18 16 16 17 22 26 27 27 28 29 27 22 17 16 17 17 16 16 17 16 13 8 5 9 14 16 14
4 3 1 1 1 4 6 7 9 11 13 15 16 16 14 14 14 14 16 17 19 22 23 22 23 23 21 20 21 22 21 17 14 12 14 15 13 9 8 10 14 16 15
1 1 0 0 0 1 2 4 7 9 11 12 13 12 11 10 11 13 15 17 17 18 19 18 18 19 18 19 23 25 22 17 11 9 10 13 12 11 11 13 14 15 14
1 0 0 0 0 0 0 2 5 6 7 9 9 9 8 8 8 9 10 12 14 15 15 15 15 17 18 19 21 24 23 18 13 10 9 11 11 11 13 14 15 15 14
2 1 0 0 0 0 0 0 2 3 3 4 5 6 5 5 5 6 7 9 11 11 12 11 12 15 17 17 20 22 21 19 17 13 10 10 10 10 11 13 16 18 17
2 1 0 0 0 0 0 0 0 1 1 1 1 2 2 2 4 4 6 8 10 10 10 9 10 13 14 16 20 22 19 18 17 15 12 10 9 9 10 12 15 19 19